FW0860 Weather Reports


time (UTC)temp
C
wind
direction
speed
KPH
gust
KPH
rain 1hr
cm
rain 24hr
cm
rain mn
cm
humidity
%
barometer
mb
20260505200620 25 287 1.6 17.7 0.00 0.00 0.00 29 1010.8
20260505200541 25 288 3.2 20.9 0.00 0.00 0.00 29 1010.9
20260505200429 25 288 4.8 20.9 0.00 0.00 0.00 29 1010.9
20260505200331 25 274 4.8 20.9 0.00 0.00 0.00 29 1011.0
20260505200233 25 281 3.2 20.9 0.00 0.00 0.00 29 1010.8
20260505200118 25 238 6.4 20.9 0.00 0.00 0.00 29 1011.0
20260505200038 25 229 9.7 20.9 0.00 0.00 0.00 29 1010.9
20260505195929 25 256 8.0 20.9 0.00 0.00 0.00 29 1010.9
20260505195838 25 256 8.0 20.9 0.00 0.00 0.00 29 1011.0
20260505195719 25 215 4.8 20.9 0.00 0.00 0.00 29 1011.0
20260505195626 25 298 0.0 17.7 0.00 0.00 0.00 30 1011.0
20260505195529 25 236 0.0 17.7 0.00 0.00 0.00 30 1010.9
20260505195435 25 172 0.0 17.7 0.00 0.00 0.00 31 1011.0
20260505195316 24 163 0.0 20.9 0.00 0.00 0.00 31 1011.0
20260505195245 24 200 0.0 20.9 0.00 0.00 0.00 31 1011.0
20260505195152 24 206 0.0 20.9 0.00 0.00 0.00 31 1011.0
20260505195034 25 206 3.2 20.9 0.00 0.00 0.00 30 1011.0
20260505194936 25 206 4.8 20.9 0.00 0.00 0.00 29 1011.2
20260505194820 25 217 4.8 20.9 0.00 0.00 0.00 30 1011.1
20260505194730 25 203 6.4 20.9 0.00 0.00 0.00 30 1011.1
20260505194632 25 173 6.4 20.9 0.00 0.00 0.00 30 1011.2
20260505194540 25 219 6.4 20.9 0.00 0.00 0.00 30 1011.1
20260505194421 25 203 4.8 20.9 0.00 0.00 0.00 30 1011.1
20260505194323 25 165 0.0 14.5 0.00 0.00 0.00 30 1011.1
20260505194252 25 241 0.0 17.7 0.00 0.00 0.00 31 1011.1
20260505194117 25 226 0.0 17.7 0.00 0.00 0.00 31 1011.2
20260505194024 25 215 0.0 17.7 0.00 0.00 0.00 30 1011.2
20260505193928 25 229 1.6 17.7 0.00 0.00 0.00 30 1011.2
20260505193829 25 227 4.8 17.7 0.00 0.00 0.00 30 1011.2
20260505193738 25 245 8.0 17.7 0.00 0.00 0.00 30 1011.3
20260505193619 25 232 6.4 17.7 0.00 0.00 0.00 31 1011.2
20260505193524 25 235 3.2 17.7 0.00 0.00 0.00 31 1011.1
20260505193426 25 176 0.0 17.7 0.00 0.00 0.00 31 1011.2
20260505193356 25 255 1.6 17.7 0.00 0.00 0.00 30 1011.2
20260505193244 25 210 6.4 17.7 0.00 0.00 0.00 30 1011.3
20260505193125 25 226 4.8 12.9 0.00 0.00 0.00 31 1011.3
20260505193026 25 283 3.2 12.9 0.00 0.00 0.00 32 1011.2
20260505192957 24 240 0.0 12.9 0.00 0.00 0.00 31 1011.2
20260505192820 24 303 0.0 12.9 0.00 0.00 0.00 31 1011.3
20260505192723 24 303 0.0 12.9 0.00 0.00 0.00 31 1011.3
20260505192632 24 303 0.0 12.9 0.00 0.00 0.00 32 1011.3
20260505192534 24 303 0.0 12.9 0.00 0.00 0.00 33 1011.3
20260505192417 23 303 0.0 12.9 0.00 0.00 0.00 33 1011.3
20260505192318 23 214 0.0 12.9 0.00 0.00 0.00 33 1011.3
20260505192231 23 222 3.2 12.9 0.00 0.00 0.00 33 1011.3
20260505192132 23 226 3.2 12.9 0.00 0.00 0.00 33 1011.4
20260505192042 23 264 3.2 12.9 0.00 0.00 0.00 32 1011.3
20260505191922 23 262 4.8 12.9 0.00 0.00 0.00 33 1011.3
20260505191831 23 257 4.8 12.9 0.00 0.00 0.00 32 1011.3
20260505191732 23 260 3.2 12.9 0.00 0.00 0.00 32 1011.2
20260505191633 24 249 1.6 20.9 0.00 0.00 0.00 33 1011.3
20260505191519 24 259 4.8 20.9 0.00 0.00 0.00 33 1011.3
20260505191429 24 259 4.8 20.9 0.00 0.00 0.00 32 1011.3
20260505191331 24 223 1.6 20.9 0.00 0.00 0.00 33 1011.3
20260505191233 24 217 3.2 20.9 0.00 0.00 0.00 32 1011.3
20260505191142 25 217 4.8 20.9 0.00 0.00 0.00 32 1011.3
20260505191022 25 179 4.8 20.9 0.00 0.00 0.00 32 1011.4
20260505190931 25 174 4.8 20.9 0.00 0.00 0.00 33 1011.4
20260505190818 25 219 8.0 20.9 0.00 0.00 0.00 32 1011.5
20260505190739 24 257 4.8 19.3 0.00 0.00 0.00 33 1011.5
20260505190627 24 236 6.4 19.3 0.00 0.00 0.00 31 1011.5
20260505190557 25 247 9.7 19.3 0.00 0.00 0.00 32 1011.6
20260505190435 25 265 11.3 19.3 0.00 0.00 0.00 32 1011.6
20260505190317 25 240 8.0 16.1 0.00 0.00 0.00 33 1011.5
20260505190245 25 236 6.4 14.5 0.00 0.00 0.00 33 1011.4
20260505190130 25 233 8.0 17.7 0.00 0.00 0.00 33 1011.5
20260505190050 25 260 6.4 17.7 0.00 0.00 0.00 33 1011.5
20260505185924 25 219 3.2 17.7 0.00 0.00 0.00 33 1011.4
20260505185833 25 216 1.6 17.7 0.00 0.00 0.00 33 1011.3
20260505185734 25 215 3.2 17.7 0.00 0.00 0.00 33 1011.3
20260505185621 25 217 3.2 17.7 0.00 0.00 0.00 33 1011.4
20260505185523 24 154 4.8 17.7 0.00 0.00 0.00 33 1011.3
20260505185452 24 152 6.4 17.7 0.00 0.00 0.00 34 1011.3
20260505185316 24 160 6.4 17.7 0.00 0.00 0.00 34 1011.3
20260505185238 24 160 8.0 17.7 0.00 0.00 0.00 34 1011.3
20260505185126 24 160 6.4 17.7 0.00 0.00 0.00 34 1011.3
20260505185028 24 162 4.8 19.3 0.00 0.00 0.00 34 1011.2
20260505184937 24 163 4.8 19.3 0.00 0.00 0.00 35 1011.3
20260505184819 23 163 4.8 19.3 0.00 0.00 0.00 34 1011.3
20260505184722 23 161 4.8 19.3 0.00 0.00 0.00 35 1011.3
20260505184651 23 160 4.8 19.3 0.00 0.00 0.00 35 1011.3
20260505184533 23 193 4.8 20.9 0.00 0.00 0.00 34 1011.4
20260505184416 24 224 8.0 20.9 0.00 0.00 0.00 34 1011.5
20260505184317 24 223 9.7 20.9 0.00 0.00 0.00 34 1011.6
20260505184225 24 215 9.7 20.9 0.00 0.00 0.00 35 1011.6
20260505184131 23 221 9.7 20.9 0.00 0.00 0.00 35 1011.6
20260505184032 23 205 9.7 20.9 0.00 0.00 0.00 35 1011.6
20260505183941 23 186 8.0 20.9 0.00 0.00 0.00 35 1011.6
20260505183823 23 186 11.3 20.9 0.00 0.00 0.00 35 1011.6
20260505183725 23 184 9.7 20.9 0.00 0.00 0.00 35 1011.7
20260505183654 23 269 9.7 17.7 0.00 0.00 0.00 34 1011.5
20260505183518 23 250 9.7 22.5 0.00 0.00 0.00 34 1011.5
20260505183420 23 255 9.7 22.5 0.00 0.00 0.00 34 1011.7
20260505183349 23 255 6.4 22.5 0.00 0.00 0.00 34 1011.7
20260505183234 23 216 3.2 22.5 0.00 0.00 0.00 34 1011.6
20260505183157 23 238 4.8 22.5 0.00 0.00 0.00 34 1011.7
20260505183017 23 244 8.0 22.5 0.00 0.00 0.00 33 1011.7
20260505182925 23 232 6.4 22.5 0.00 0.00 0.00 34 1011.7
20260505182827 24 223 9.7 22.5 0.00 0.00 0.00 34 1011.7
20260505182802 24 219 8.0 22.5 0.00 0.00 0.00 34 1011.7
20260505182642 23 229 6.4 17.7 0.00 0.00 0.00 34 1011.6
20260505182522 23 217 4.8 17.7 0.00 0.00 0.00 35 1011.6
20260505182451 23 278 4.8 17.7 0.00 0.00 0.00 35 1011.7
20260505182359 23 227 4.8 17.7 0.00 0.00 0.00 35 1011.7
20260505182220 23 232 8.0 17.7 0.00 0.00 0.00 35 1011.7
20260505182127 23 226 8.0 17.7 0.00 0.00 0.00 35 1011.6
20260505182049 23 178 8.0 19.3 0.00 0.00 0.00 35 1011.8
20260505181941 23 226 4.8 19.3 0.00 0.00 0.00 34 1011.8
20260505181823 23 188 4.8 19.3 0.00 0.00 0.00 34 1011.8
20260505181724 23 217 4.8 19.3 0.00 0.00 0.00 35 1011.7
20260505181627 23 227 4.8 19.3 0.00 0.00 0.00 34 1011.8
20260505181535 23 262 4.8 19.3 0.00 0.00 0.00 35 1011.9
20260505181415 23 232 8.0 19.3 0.00 0.00 0.00 35 1011.9
20260505181321 23 218 9.7 19.3 0.00 0.00 0.00 36 1011.9
20260505181224 23 182 8.0 17.7 0.00 0.00 0.00 37 1011.9
20260505181133 23 221 6.4 16.1 0.00 0.00 0.00 36 1011.9
20260505181035 23 250 6.4 16.1 0.00 0.00 0.00 37 1011.8
20260505180916 23 195 6.4 16.1 0.00 0.00 0.00 37 1011.9
20260505180845 23 166 3.2 16.1 0.00 0.00 0.00 38 1012.0
20260505180723 23 224 1.6 16.1 0.00 0.00 0.00 37 1012.0
20260505180656 23 208 1.6 16.1 0.00 0.00 0.00 38 1011.9
20260505180518 23 208 3.2 16.1 0.00 0.00 0.00 38 1011.9
20260505180426 23 209 4.8 20.9 0.00 0.00 0.00 39 1011.9
20260505180329 23 233 8.0 20.9 0.00 0.00 0.00 39 1011.9
20260505180231 23 221 9.7 20.9 0.00 0.00 0.00 39 1011.8
20260505180139 23 219 6.4 20.9 0.00 0.00 0.00 40 1011.8
20260505180034 23 199 4.8 20.9 0.00 0.00 0.00 40 1011.8
20260505175952 23 229 8.0 20.9 0.00 0.00 0.00 39 1011.8
20260505175859 23 229 9.7 20.9 0.00 0.00 0.00 40 1011.9
20260505175739 23 240 11.3 20.9 0.00 0.00 0.00 40 1011.8
20260505175618 23 245 9.7 20.9 0.00 0.00 0.00 40 1011.8
20260505175525 23 210 8.0 19.3 0.00 0.00 0.00 41 1011.8
20260505175426 23 212 6.4 16.1 0.00 0.00 0.00 41 1011.8
20260505175335 23 191 3.2 14.5 0.00 0.00 0.00 41 1011.7
20260505175220 23 246 0.0 6.4 0.00 0.00 0.00 42 1011.8
20260505175150 23 250 0.0 6.4 0.00 0.00 0.00 42 1011.6
20260505175029 23 224 0.0 6.4 0.00 0.00 0.00 41 1011.7
20260505174940 23 224 1.6 6.4 0.00 0.00 0.00 41 1011.7
20260505174841 23 192 1.6 6.4 0.00 0.00 0.00 41 1011.7
20260505174723 23 232 0.0 4.8 0.00 0.00 0.00 40 1011.7
20260505174626 23 231 0.0 4.8 0.00 0.00 0.00 40 1011.9
20260505174539 23 219 0.0 4.8 0.00 0.00 0.00 40 1011.9
20260505174422 23 244 0.0 1.6 0.00 0.00 0.00 42 1011.7
20260505174323 23 245 0.0 19.3 0.00 0.00 0.00 42 1011.8
20260505174225 23 245 0.0 19.3 0.00 0.00 0.00 43 1011.9
20260505174134 22 245 0.0 19.3 0.00 0.00 0.00 43 1011.8
20260505174021 22 245 0.0 19.3 0.00 0.00 0.00 42 1011.8
20260505173924 22 245 0.0 19.3 0.00 0.00 0.00 42 1011.8
20260505173826 22 241 0.0 19.3 0.00 0.00 0.00 43 1011.9
20260505173735 22 254 0.0 19.3 0.00 0.00 0.00 43 1011.9
20260505173656 22 214 1.6 19.3 0.00 0.00 0.00 43 1011.8
20260505173517 22 202 6.4 19.3 0.00 0.00 0.00 43 1011.9
20260505173426 22 229 6.4 17.7 0.00 0.00 0.00 43 1011.8
20260505173332 22 203 4.8 17.7 0.00 0.00 0.00 44 1011.8
20260505173221 22 225 1.6 14.5 0.00 0.00 0.00 44 1011.9
20260505173122 22 221 3.2 14.5 0.00 0.00 0.00 44 1011.8
20260505173023 22 236 4.8 14.5 0.00 0.00 0.00 43 1011.7
20260505172932 22 233 4.8 14.5 0.00 0.00 0.00 43 1011.7
20260505172834 22 257 3.2 14.5 0.00 0.00 0.00 44 1011.7
20260505172720 22 197 4.8 14.5 0.00 0.00 0.00 43 1011.7
20260505172649 22 224 6.4 14.5 0.00 0.00 0.00 44 1011.7
20260505172550 22 219 6.4 14.5 0.00 0.00 0.00 44 1011.6
20260505172416 22 214 1.6 12.9 0.00 0.00 0.00 44 1011.6
20260505172339 22 216 3.2 12.9 0.00 0.00 0.00 44 1011.6
20260505172246 22 217 4.8 12.9 0.00 0.00 0.00 44 1011.6
20260505172135 22 237 4.8 12.9 0.00 0.00 0.00 43 1011.6
20260505172017 22 213 4.8 12.9 0.00 0.00 0.00 45 1011.6
20260505171920 22 207 4.8 11.3 0.00 0.00 0.00 45 1011.6
20260505171829 21 202 4.8 11.3 0.00 0.00 0.00 45 1011.6
20260505171730 21 202 4.8 11.3 0.00 0.00 0.00 46 1011.6
20260505171633 21 205 3.2 12.9 0.00 0.00 0.00 46 1011.8
20260505171542 21 219 3.2 12.9 0.00 0.00 0.00 44 1011.8
20260505171423 21 214 3.2 12.9 0.00 0.00 0.00 42 1011.7
20260505171331 21 242 1.6 12.9 0.00 0.00 0.00 43 1011.8
20260505171218 21 245 1.6 12.9 0.00 0.00 0.00 42 1011.8
20260505171120 21 247 0.0 12.9 0.00 0.00 0.00 42 1011.7
20260505171049 21 246 0.0 12.9 0.00 0.00 0.00 42 1011.6
20260505170948 22 246 1.6 12.9 0.00 0.00 0.00 42 1011.8
20260505170836 22 246 3.2 12.9 0.00 0.00 0.00 43 1011.7
20260505170718 22 241 1.6 9.7 0.00 0.00 0.00 42 1011.8
20260505170620 22 250 1.6 11.3 0.00 0.00 0.00 43 1011.8
20260505170533 22 226 0.0 11.3 0.00 0.00 0.00 43 1011.9
20260505170434 21 227 0.0 11.3 0.00 0.00 0.00 43 1011.8
20260505170317 21 227 0.0 11.3 0.00 0.00 0.00 42 1011.7
20260505170246 21 227 0.0 11.3 0.00 0.00 0.00 42 1011.8
20260505170147 21 226 0.0 11.3 0.00 0.00 0.00 41 1011.9
20260505170047 21 222 0.0 11.3 0.00 0.00 0.00 41 1011.9
20260505165920 21 214 1.6 11.3 0.00 0.00 0.00 41 1011.8
20260505165829 21 212 1.6 11.3 0.00 0.00 0.00 41 1011.8
20260505165730 21 192 0.0 4.8 0.00 0.00 0.00 41 1011.7
20260505165633 21 192 0.0 9.7 0.00 0.00 0.00 41 1011.7
20260505165542 21 192 0.0 9.7 0.00 0.00 0.00 42 1011.8
20260505165423 21 192 0.0 9.7 0.00 0.00 0.00 42 1011.8
20260505165331 21 192 0.0 9.7 0.00 0.00 0.00 42 1011.8
20260505165253 21 236 0.0 9.7 0.00 0.00 0.00 42 1011.9
20260505165125 21 253 0.0 9.7 0.00 0.00 0.00 42 1011.8
20260505165026 21 254 0.0 9.7 0.00 0.00 0.00 41 1011.8
20260505164927 21 254 1.6 9.7 0.00 0.00 0.00 42 1011.9
20260505164856 21 182 3.2 9.7 0.00 0.00 0.00 42 1011.9
20260505164716 21 207 0.0 9.7 0.00 0.00 0.00 43 1011.7
20260505164618 21 208 0.0 1.6 0.00 0.00 0.00 43 1011.8
20260505164531 21 208 0.0 1.6 0.00 0.00 0.00 43 1011.7
20260505164433 21 210 0.0 1.6 0.00 0.00 0.00 42 1011.7
20260505164334 21 214 0.0 1.6 0.00 0.00 0.00 42 1011.8
20260505164216 21 214 0.0 6.4 0.00 0.00 0.00 42 1011.9
20260505164147 21 214 0.0 6.4 0.00 0.00 0.00 43 1011.9
20260505164033 21 214 0.0 6.4 0.00 0.00 0.00 43 1011.9
20260505163933 21 214 0.0 6.4 0.00 0.00 0.00 41 1012.0
20260505163819 21 213 0.0 6.4 0.00 0.00 0.00 41 1011.9
20260505163748 21 212 0.0 6.4 0.00 0.00 0.00 42 1012.0
20260505163657 21 207 0.0 6.4 0.00 0.00 0.00 42 1012.0
20260505163517 21 206 1.6 6.4 0.00 0.00 0.00 43 1012.0
20260505163420 21 205 1.6 6.4 0.00 0.00 0.00 44 1012.0
20260505163322 21 204 0.0 6.4 0.00 0.00 0.00 44 1011.9
20260505163231 21 204 0.0 6.4 0.00 0.00 0.00 44 1011.9
20260505163137 20 204 1.6 6.4 0.00 0.00 0.00 44 1011.9
20260505163018 20 204 1.6 6.4 0.00 0.00 0.00 45 1012.0
20260505162927 20 203 1.6 6.4 0.00 0.00 0.00 45 1012.0
20260505162850 20 203 0.0 8.0 0.00 0.00 0.00 44 1012.0
20260505162738 20 214 0.0 8.0 0.00 0.00 0.00 44 1012.0
20260505162638 20 213 0.0 8.0 0.00 0.00 0.00 43 1012.0
20260505162526 20 214 0.0 8.0 0.00 0.00 0.00 43 1012.0
20260505162432 20 214 0.0 8.0 0.00 0.00 0.00 43 1012.0
20260505162343 20 215 0.0 9.7 0.00 0.00 0.00 43 1012.0
20260505162222 20 212 1.6 9.7 0.00 0.00 0.00 42 1012.0
20260505162125 20 245 1.6 9.7 0.00 0.00 0.00 42 1012.0
20260505162033 20 248 1.6 9.7 0.00 0.00 0.00 42 1012.0
20260505162003 20 245 0.0 9.7 0.00 0.00 0.00 42 1012.0
20260505161824 20 248 1.6 9.7 0.00 0.00 0.00 42 1012.0
20260505161731 20 248 1.6 9.7 0.00 0.00 0.00 43 1012.0
20260505161633 20 248 1.6 9.7 0.00 0.00 0.00 43 1011.9
20260505161542 20 240 1.6 9.7 0.00 0.00 0.00 43 1011.9
20260505161424 20 229 0.0 9.7 0.00 0.00 0.00 43 1012.0
20260505161327 20 229 1.6 9.7 0.00 0.00 0.00 43 1012.0
20260505161229 20 229 1.6 9.7 0.00 0.00 0.00 43 1012.0
20260505161119 20 224 1.6 8.0 0.00 0.00 0.00 44 1012.0
20260505161021 20 222 1.6 8.0 0.00 0.00 0.00 44 1012.0
20260505160924 20 254 0.0 0.0 0.00 0.00 0.00 44 1012.0
20260505160831 20 255 0.0 0.0 0.00 0.00 0.00 43 1012.0
20260505160802 20 255 0.0 0.0 0.00 0.00 0.00 43 1012.0
20260505160641 20 255 0.0 0.0 0.00 0.00 0.00 43 1012.1
20260505160520 20 255 0.0 1.6 0.00 0.00 0.00 44 1012.1
20260505160453 20 255 0.0 1.6 0.00 0.00 0.00 43 1012.0
20260505160334 20 255 0.0 6.4 0.00 0.00 0.00 43 1012.1
20260505160216 20 255 0.0 6.4 0.00 0.00 0.00 43 1012.0
20260505160117 20 255 0.0 6.4 0.00 0.00 0.00 44 1012.0
20260505153326 20 247 1.6 8.0 0.00 0.00 0.00 47 1011.8
20260505153228 20 244 1.6 9.7 0.00 0.00 0.00 47 1011.8
20260505153158 20 245 1.6 9.7 0.00 0.00 0.00 47 1011.8
20260505153018 20 247 1.6 14.5 0.00 0.00 0.00 46 1011.8
20260505152923 20 247 0.0 14.5 0.00 0.00 0.00 46 1011.8
20260505152824 20 245 0.0 14.5 0.00 0.00 0.00 46 1011.9
20260505152733 20 249 0.0 14.5 0.00 0.00 0.00 45 1011.9
20260505152635 20 250 0.0 14.5 0.00 0.00 0.00 45 1012.0
20260505152517 20 271 1.6 14.5 0.00 0.00 0.00 46 1011.9
20260505152419 20 272 3.2 14.5 0.00 0.00 0.00 46 1011.9
20260505152347 20 228 6.4 14.5 0.00 0.00 0.00 46 1011.9
20260505152232 20 260 3.2 14.5 0.00 0.00 0.00 46 1011.9
20260505152141 20 246 1.6 14.5 0.00 0.00 0.00 47 1011.9
20260505152023 20 226 0.0 11.3 0.00 0.00 0.00 48 1011.9
20260505151925 20 226 0.0 11.3 0.00 0.00 0.00 48 1012.0
20260505151836 20 226 1.6 11.3 0.00 0.00 0.00 48 1011.9
20260505151720 20 224 1.6 11.3 0.00 0.00 0.00 48 1011.9
20260505151622 20 224 1.6 11.3 0.00 0.00 0.00 48 1011.9
20260505151523 20 224 3.2 11.3 0.00 0.00 0.00 49 1011.9
20260505151432 20 257 3.2 11.3 0.00 0.00 0.00 49 1011.9
20260505151334 20 214 1.6 8.0 0.00 0.00 0.00 50 1011.9
20260505151235 20 205 1.6 8.0 0.00 0.00 0.00 51 1011.8
20260505151122 20 204 0.0 8.0 0.00 0.00 0.00 51 1011.8
20260505151031 20 193 1.6 8.0 0.00 0.00 0.00 51 1011.9
20260505150933 20 193 1.6 8.0 0.00 0.00 0.00 51 1011.8
20260505150815 20 193 0.0 3.2 0.00 0.00 0.00 51 1011.8
20260505150717 19 193 0.0 0.0 0.00 0.00 0.00 50 1011.8
20260505150646 19 193 0.0 0.0 0.00 0.00 0.00 51 1011.8
20260505150532 19 193 0.0 0.0 0.00 0.00 0.00 50 1011.7
20260505150417 19 193 0.0 0.0 0.00 0.00 0.00 51 1011.7
20260505150324 19 193 0.0 0.0 0.00 0.00 0.00 51 1011.7
20260505150226 19 193 0.0 0.0 0.00 0.00 0.00 51 1011.8
20260505150127 19 193 0.0 0.0 0.00 0.00 0.00 51 1011.7
20260505140638 18 196 0.0 6.4 0.00 0.00 0.00 59 1011.6
20260505140540 18 196 0.0 6.4 0.00 0.00 0.00 59 1011.6
20260505140421 18 196 1.6 6.4 0.00 0.00 0.00 59 1011.6
20260505140331 18 196 1.6 6.4 0.00 0.00 0.00 59 1011.6
20260505140234 18 196 0.0 6.4 0.00 0.00 0.00 59 1011.6
20260505140116 18 196 0.0 6.4 0.00 0.00 0.00 59 1011.7
20260505130251 18 169 1.6 8.0 0.00 0.00 0.00 59 1011.0
20260505130116 18 163 0.0 9.7 0.00 0.00 0.00 59 1011.0
20260505125028 18 238 0.0 4.8 0.00 0.00 0.00 59 1010.7
20260505124934 18 238 1.6 4.8 0.00 0.00 0.00 59 1010.7
20260505124844 18 238 1.6 4.8 0.00 0.00 0.00 59 1010.7
20260505124716 18 257 0.0 3.2 0.00 0.00 0.00 59 1010.7
20260505124625 18 283 0.0 3.2 0.00 0.00 0.00 59 1010.8
20260505124526 18 233 0.0 0.0 0.00 0.00 0.00 59 1010.8
20260505124455 18 233 0.0 0.0 0.00 0.00 0.00 59 1010.8
20260505124320 18 233 0.0 1.6 0.00 0.00 0.00 59 1010.7
20260505124222 18 233 0.0 1.6 0.00 0.00 0.00 59 1010.7
20260505124131 18 233 0.0 1.6 0.00 0.00 0.00 59 1010.8
20260505124033 18 233 0.0 1.6 0.00 0.00 0.00 59 1010.7
20260505123934 18 233 0.0 1.6 0.00 0.00 0.00 60 1010.7
20260505123821 18 233 0.0 1.6 0.00 0.00 0.00 60 1010.7
20260505123727 18 233 0.0 1.6 0.00 0.00 0.00 60 1010.7
20260505123630 18 233 0.0 1.6 0.00 0.00 0.00 60 1010.6
20260505123538 18 233 0.0 1.6 0.00 0.00 0.00 60 1010.6
20260505123439 18 233 0.0 1.6 0.00 0.00 0.00 60 1010.6
20260505123320 18 233 0.0 1.6 0.00 0.00 0.00 60 1010.7
20260505123229 18 233 0.0 1.6 0.00 0.00 0.00 59 1010.6
20260505123116 18 232 0.0 0.0 0.00 0.00 0.00 60 1010.6
20260505123044 18 233 0.0 0.0 0.00 0.00 0.00 60 1010.6
20260505122924 18 233 0.0 0.0 0.00 0.00 0.00 60 1010.6
20260505122832 18 233 0.0 0.0 0.00 0.00 0.00 60 1010.6
20260505122735 18 232 0.0 0.0 0.00 0.00 0.00 60 1010.7
20260505122617 18 233 0.0 0.0 0.00 0.00 0.00 60 1010.6
20260505122519 18 232 0.0 0.0 0.00 0.00 0.00 60 1010.6
20260505122448 18 232 0.0 0.0 0.00 0.00 0.00 60 1010.6
20260505122401 18 232 0.0 0.0 0.00 0.00 0.00 60 1010.6
20260505122219 18 232 0.0 0.0 0.00 0.00 0.00 60 1010.6
20260505122128 18 232 0.0 0.0 0.00 0.00 0.00 59 1010.6
20260505122037 18 233 0.0 0.0 0.00 0.00 0.00 59 1010.6
20260505121918 18 232 0.0 0.0 0.00 0.00 0.00 59 1010.6
20260505121825 18 233 0.0 0.0 0.00 0.00 0.00 59 1010.7
20260505121727 18 233 0.0 0.0 0.00 0.00 0.00 59 1010.7
20260505121641 18 233 0.0 0.0 0.00 0.00 0.00 59 1010.7
20260505121521 18 232 0.0 0.0 0.00 0.00 0.00 59 1010.6
20260505121429 18 232 0.0 0.0 0.00 0.00 0.00 59 1010.6
20260505121330 18 232 0.0 0.0 0.00 0.00 0.00 59 1010.7
20260505121231 18 232 0.0 0.0 0.00 0.00 0.00 59 1010.6
20260505121140 18 232 0.0 0.0 0.00 0.00 0.00 59 1010.5
20260505121041 18 232 0.0 0.0 0.00 0.00 0.00 59 1010.6
20260505120928 18 232 0.0 0.0 0.00 0.00 0.00 59 1010.6
20260505120833 18 232 0.0 0.0 0.00 0.00 0.00 59 1010.6
20260505120735 18 232 0.0 0.0 0.00 0.00 0.00 59 1010.6
20260505120643 18 232 0.0 0.0 0.00 0.00 0.00 58 1010.5
20260505120544 18 232 0.0 0.0 0.00 0.00 0.00 58 1010.5
20260505120432 18 232 0.0 0.0 0.00 0.00 0.00 58 1010.5
20260505120333 18 232 0.0 0.0 0.00 0.00 0.00 58 1010.5
20260505120243 18 233 0.0 0.0 0.00 0.00 0.00 58 1010.5
20260505120126 18 233 0.0 0.0 0.00 0.00 0.00 58 1010.4
20260505120041 18 232 0.0 0.0 0.00 0.00 0.00 58 1010.4
20260505115938 18 232 0.0 0.0 0.00 0.00 0.00 58 1010.5
20260505115821 18 232 0.0 0.0 0.00 0.00 0.00 58 1010.4
20260505115723 18 232 0.0 0.0 0.00 0.00 0.00 58 1010.5
20260505115624 18 233 0.0 0.0 0.00 0.00 0.00 58 1010.5
20260505115537 18 232 0.0 1.6 0.00 0.00 0.00 58 1010.4
20260505115417 18 232 0.0 4.8 0.00 0.00 0.00 58 1010.4
20260505115345 18 232 0.0 4.8 0.00 0.00 0.00 58 1010.5
20260505115225 18 233 0.0 4.8 0.00 0.00 0.00 58 1010.5
20260505115132 18 233 0.0 4.8 0.00 0.00 0.00 58 1010.4
20260505115034 18 233 0.0 4.8 0.00 0.00 0.00 58 1010.4
20260505114915 18 232 0.0 4.8 0.00 0.00 0.00 57 1010.4
20260505114828 18 232 0.0 4.8 0.00 0.00 0.00 57 1010.4
20260505114751 18 233 1.6 4.8 0.00 0.00 0.00 57 1010.4
20260505114638 18 233 1.6 4.8 0.00 0.00 0.00 57 1010.4
20260505114520 18 233 0.0 4.8 0.00 0.00 0.00 57 1010.4
20260505114422 18 234 0.0 4.8 0.00 0.00 0.00 57 1010.4
20260505114324 18 234 0.0 1.6 0.00 0.00 0.00 57 1010.4
20260505114237 18 234 0.0 1.6 0.00 0.00 0.00 57 1010.4
20260505114120 18 234 0.0 1.6 0.00 0.00 0.00 56 1010.4
20260505114022 18 234 0.0 1.6 0.00 0.00 0.00 56 1010.5
20260505113931 18 234 0.0 1.6 0.00 0.00 0.00 56 1010.4
20260505113831 18 234 0.0 1.6 0.00 0.00 0.00 56 1010.4
20260505113740 18 234 0.0 1.6 0.00 0.00 0.00 56 1010.4
20260505113618 18 234 0.0 1.6 0.00 0.00 0.00 56 1010.4
20260505113531 18 234 0.0 0.0 0.00 0.00 0.00 56 1010.5
20260505113453 18 234 0.0 0.0 0.00 0.00 0.00 56 1010.5
20260505113342 18 234 0.0 0.0 0.00 0.00 0.00 56 1010.5
20260505113222 18 234 0.0 0.0 0.00 0.00 0.00 56 1010.5
20260505113124 18 234 0.0 0.0 0.00 0.00 0.00 56 1010.5
20260505113033 18 234 0.0 0.0 0.00 0.00 0.00 56 1010.4
20260505112935 18 234 0.0 0.0 0.00 0.00 0.00 56 1010.4
20260505112823 18 234 0.0 0.0 0.00 0.00 0.00 56 1010.4
20260505112729 18 234 0.0 0.0 0.00 0.00 0.00 56 1010.4
20260505112638 18 234 0.0 1.6 0.00 0.00 0.00 55 1010.4
20260505112539 18 234 0.0 8.0 0.00 0.00 0.00 56 1010.4
20260505112420 18 234 0.0 8.0 0.00 0.00 0.00 56 1010.4
20260505112328 18 234 0.0 8.0 0.00 0.00 0.00 55 1010.4
20260505112230 18 234 0.0 8.0 0.00 0.00 0.00 55 1010.3
20260505112137 18 234 0.0 8.0 0.00 0.00 0.00 55 1010.4
20260505112021 18 234 0.0 8.0 0.00 0.00 0.00 55 1010.4
20260505111949 18 235 0.0 8.0 0.00 0.00 0.00 55 1010.4
20260505111830 18 235 1.6 8.0 0.00 0.00 0.00 55 1010.4
20260505111731 18 235 1.6 8.0 0.00 0.00 0.00 55 1010.4
20260505111640 18 227 1.6 3.2 0.00 0.00 0.00 55 1010.4
20260505111522 18 236 0.0 3.2 0.00 0.00 0.00 55 1010.4
20260505111428 18 236 0.0 0.0 0.00 0.00 0.00 55 1010.3
20260505111339 18 236 0.0 4.8 0.00 0.00 0.00 55 1010.3
20260505111221 18 236 0.0 6.4 0.00 0.00 0.00 55 1010.3
20260505111121 18 236 0.0 8.0 0.00 0.00 0.00 55 1010.3
20260505111023 18 236 0.0 8.0 0.00 0.00 0.00 55 1010.3
20260505110932 18 236 0.0 8.0 0.00 0.00 0.00 55 1010.3
20260505110818 18 236 0.0 8.0 0.00 0.00 0.00 55 1010.4
20260505110720 19 236 0.0 8.0 0.00 0.00 0.00 54 1010.3
20260505110622 19 236 0.0 8.0 0.00 0.00 0.00 54 1010.3
20260505110531 19 236 1.6 8.0 0.00 0.00 0.00 54 1010.3
20260505110433 19 236 3.2 8.0 0.00 0.00 0.00 54 1010.2
20260505110403 19 236 3.2 8.0 0.00 0.00 0.00 54 1010.2
20260505110228 19 235 1.6 8.0 0.00 0.00 0.00 54 1010.2
20260505110130 19 235 3.2 8.0 0.00 0.00 0.00 54 1010.2
20260505102125 20 225 0.0 1.6 0.00 0.00 0.00 51 1010.6
20260505102025 20 225 0.0 1.6 0.00 0.00 0.00 51 1010.7
20260505101934 20 225 0.0 1.6 0.00 0.00 0.00 51 1010.7
20260505101817 20 225 0.0 3.2 0.00 0.00 0.00 51 1010.7
20260505101718 20 225 0.0 3.2 0.00 0.00 0.00 51 1010.7
20260505101626 20 225 0.0 3.2 0.00 0.00 0.00 51 1010.8
20260505101527 20 225 0.0 3.2 0.00 0.00 0.00 51 1010.8
20260505101440 20 225 0.0 3.2 0.00 0.00 0.00 51 1010.8
20260505101322 20 222 0.0 3.2 0.00 0.00 0.00 51 1010.7
20260505101226 20 226 0.0 3.2 0.00 0.00 0.00 51 1010.7
20260505101129 20 226 0.0 3.2 0.00 0.00 0.00 50 1010.7
20260505101037 20 226 0.0 3.2 0.00 0.00 0.00 50 1010.7
20260505100920 20 230 0.0 1.6 0.00 0.00 0.00 50 1010.7
20260505100827 20 193 0.0 1.6 0.00 0.00 0.00 50 1010.7
20260505100756 20 235 0.0 1.6 0.00 0.00 0.00 50 1010.6
20260505100635 20 226 0.0 9.7 0.00 0.00 0.00 50 1010.7
20260505100544 20 222 0.0 14.5 0.00 0.00 0.00 50 1010.6
20260505100425 20 223 0.0 17.7 0.00 0.00 0.00 50 1010.6
20260505100327 20 211 0.0 17.7 0.00 0.00 0.00 50 1010.6
20260505100256 20 222 0.0 17.7 0.00 0.00 0.00 50 1010.7
20260505100140 20 231 0.0 17.7 0.00 0.00 0.00 50 1010.7
20260505100041 20 229 0.0 17.7 0.00 0.00 0.00 50 1010.7
20260505095932 20 215 1.6 17.7 0.00 0.00 0.00 49 1010.7
20260505095841 20 221 4.8 17.7 0.00 0.00 0.00 49 1010.7
20260505095723 20 218 9.7 17.7 0.00 0.00 0.00 49 1010.9
20260505095625 20 221 9.7 17.7 0.00 0.00 0.00 49 1011.0
20260505095554 20 222 6.4 17.7 0.00 0.00 0.00 49 1010.9
20260505095420 20 212 8.0 17.7 0.00 0.00 0.00 49 1011.0
20260505095321 20 228 9.7 17.7 0.00 0.00 0.00 49 1010.9
20260505095230 20 236 6.4 17.7 0.00 0.00 0.00 49 1011.0
20260505095132 20 217 6.4 17.7 0.00 0.00 0.00 49 1011.1
20260505095040 20 219 6.4 17.7 0.00 0.00 0.00 49 1011.1
20260505094942 20 224 4.8 17.7 0.00 0.00 0.00 49 1011.1
20260505094823 20 219 6.4 14.5 0.00 0.00 0.00 49 1011.1
20260505094736 20 220 6.4 14.5 0.00 0.00 0.00 49 1011.1
20260505094617 20 224 8.0 14.5 0.00 0.00 0.00 49 1011.1
20260505094519 20 227 4.8 14.5 0.00 0.00 0.00 49 1011.1
20260505094420 20 214 4.8 16.1 0.00 0.00 0.00 49 1011.2
20260505094329 20 224 6.4 16.1 0.00 0.00 0.00 48 1011.1
20260505094230 20 224 3.2 16.1 0.00 0.00 0.00 48 1011.2
20260505094117 20 224 1.6 16.1 0.00 0.00 0.00 48 1011.2
20260505094026 20 224 3.2 16.1 0.00 0.00 0.00 48 1011.3
20260505093928 20 224 4.8 16.1 0.00 0.00 0.00 48 1011.2
20260505093829 20 175 3.2 16.1 0.00 0.00 0.00 48 1011.3
20260505093738 20 212 3.2 16.1 0.00 0.00 0.00 48 1011.2
20260505093619 20 203 3.2 16.1 0.00 0.00 0.00 48 1011.3
20260505093525 20 224 0.0 1.6 0.00 0.00 0.00 48 1011.2
20260505093436 20 238 0.0 1.6 0.00 0.00 0.00 48 1011.1
20260505093317 20 211 0.0 4.8 0.00 0.00 0.00 47 1011.1
20260505093220 20 211 0.0 4.8 0.00 0.00 0.00 47 1011.1
20260505093122 20 216 0.0 4.8 0.00 0.00 0.00 47 1011.2
20260505093031 20 218 0.0 4.8 0.00 0.00 0.00 47 1011.1
20260505092936 20 221 0.0 4.8 0.00 0.00 0.00 47 1011.1
20260505092818 20 221 0.0 4.8 0.00 0.00 0.00 47 1011.1
20260505092726 20 238 0.0 4.8 0.00 0.00 0.00 47 1011.1
20260505092628 20 217 0.0 4.8 0.00 0.00 0.00 47 1011.2
20260505092540 20 226 0.0 4.8 0.00 0.00 0.00 47 1011.2
20260505092441 20 230 0.0 3.2 0.00 0.00 0.00 47 1011.2
20260505092325 20 231 0.0 3.2 0.00 0.00 0.00 47 1011.2
20260505092234 20 257 0.0 3.2 0.00 0.00 0.00 47 1011.2
20260505092116 20 231 0.0 3.2 0.00 0.00 0.00 46 1011.2
20260505092018 20 256 0.0 3.2 0.00 0.00 0.00 46 1011.2
20260505091920 20 217 0.0 0.0 0.00 0.00 0.00 46 1011.2
20260505091849 20 244 0.0 0.0 0.00 0.00 0.00 46 1011.1
20260505091757 20 244 0.0 0.0 0.00 0.00 0.00 46 1011.1
20260505091622 20 244 0.0 0.0 0.00 0.00 0.00 46 1011.1
20260505091524 20 245 0.0 1.6 0.00 0.00 0.00 46 1011.1
20260505091432 20 247 0.0 11.3 0.00 0.00 0.00 46 1011.1
20260505091333 20 247 0.0 12.9 0.00 0.00 0.00 46 1011.2
20260505091303 20 248 0.0 12.9 0.00 0.00 0.00 46 1011.2
20260505091122 20 243 0.0 12.9 0.00 0.00 0.00 46 1011.2
20260505091024 20 243 0.0 12.9 0.00 0.00 0.00 46 1011.2
20260505090916 20 244 0.0 12.9 0.00 0.00 0.00 46 1011.1
20260505090818 20 245 1.6 12.9 0.00 0.00 0.00 46 1011.1
20260505090726 20 235 4.8 12.9 0.00 0.00 0.00 46 1011.1
20260505090629 21 235 6.4 12.9 0.00 0.00 0.00 46 1011.0
20260505090530 21 231 3.2 11.3 0.00 0.00 0.00 46 1011.0
20260505090440 21 229 3.2 11.3 0.00 0.00 0.00 46 1011.0
20260505090340 21 230 1.6 11.3 0.00 0.00 0.00 45 1011.0
20260505090224 21 231 0.0 11.3 0.00 0.00 0.00 45 1011.0
20260505090152 21 231 1.6 11.3 0.00 0.00 0.00 45 1011.1
20260505090030 21 231 1.6 11.3 0.00 0.00 0.00 45 1011.0
20260505085921 21 231 1.6 11.3 0.00 0.00 0.00 45 1011.0
20260505085824 21 231 3.2 11.3 0.00 0.00 0.00 45 1011.0
20260505085732 21 231 3.2 11.3 0.00 0.00 0.00 45 1011.0
20260505085619 21 229 1.6 9.7 0.00 0.00 0.00 45 1011.1
20260505085520 21 231 1.6 9.7 0.00 0.00 0.00 45 1011.1
20260505085449 21 231 0.0 1.6 0.00 0.00 0.00 45 1011.1
20260505085350 21 231 0.0 1.6 0.00 0.00 0.00 45 1011.1
20260505085256 21 231 0.0 0.0 0.00 0.00 0.00 45 1011.1
20260505085137 21 231 0.0 1.6 0.00 0.00 0.00 45 1011.1
20260505085025 21 231 0.0 1.6 0.00 0.00 0.00 44 1011.1
20260505084926 21 232 0.0 1.6 0.00 0.00 0.00 44 1011.1
20260505084840 21 232 0.0 1.6 0.00 0.00 0.00 44 1011.1
20260505084722 21 232 0.0 1.6 0.00 0.00 0.00 44 1011.1
20260505084621 21 232 0.0 1.6 0.00 0.00 0.00 44 1011.1
20260505084550 21 232 0.0 1.6 0.00 0.00 0.00 44 1011.2
20260505084432 21 232 0.0 1.6 0.00 0.00 0.00 44 1011.1
20260505084334 21 231 0.0 1.6 0.00 0.00 0.00 44 1011.1
20260505084219 21 229 0.0 0.0 0.00 0.00 0.00 44 1011.2
20260505084149 21 228 0.0 0.0 0.00 0.00 0.00 44 1011.3
20260505084030 21 228 0.0 1.6 0.00 0.00 0.00 44 1011.3
20260505083939 21 228 0.0 1.6 0.00 0.00 0.00 44 1011.3
20260505083821 21 228 0.0 1.6 0.00 0.00 0.00 44 1011.4
20260505083723 21 228 0.0 3.2 0.00 0.00 0.00 43 1011.4
20260505083624 21 228 0.0 8.0 0.00 0.00 0.00 43 1011.5
20260505083537 21 228 0.0 8.0 0.00 0.00 0.00 43 1011.5
20260505083417 21 228 0.0 8.0 0.00 0.00 0.00 43 1011.5
20260505083318 21 228 0.0 8.0 0.00 0.00 0.00 43 1011.4
20260505083227 21 228 0.0 8.0 0.00 0.00 0.00 43 1011.5
20260505083129 21 227 0.0 8.0 0.00 0.00 0.00 43 1011.6
20260505083040 21 227 0.0 8.0 0.00 0.00 0.00 43 1011.6
20260505082924 21 227 1.6 8.0 0.00 0.00 0.00 43 1011.7
20260505082828 21 227 1.6 8.0 0.00 0.00 0.00 43 1011.7
20260505082735 21 226 0.0 8.0 0.00 0.00 0.00 43 1011.7
20260505082617 21 227 0.0 8.0 0.00 0.00 0.00 43 1011.7
20260505082520 21 227 0.0 8.0 0.00 0.00 0.00 43 1011.7
20260505082423 21 226 0.0 8.0 0.00 0.00 0.00 43 1011.8
20260505082336 21 226 0.0 8.0 0.00 0.00 0.00 43 1011.8
20260505082237 21 227 1.6 8.0 0.00 0.00 0.00 43 1011.9
20260505082145 21 227 3.2 8.0 0.00 0.00 0.00 43 1011.9
20260505082023 21 227 1.6 11.3 0.00 0.00 0.00 43 1011.8
20260505081925 21 226 0.0 11.3 0.00 0.00 0.00 43 1011.8
20260505081826 21 226 0.0 11.3 0.00 0.00 0.00 43 1011.9
20260505081736 21 230 0.0 11.3 0.00 0.00 0.00 43 1011.8
20260505081640 21 231 0.0 11.3 0.00 0.00 0.00 43 1011.8
20260505081520 21 233 0.0 11.3 0.00 0.00 0.00 43 1011.8
20260505081429 21 232 1.6 11.3 0.00 0.00 0.00 42 1011.9
20260505081331 21 232 3.2 11.3 0.00 0.00 0.00 42 1011.9
20260505081241 21 232 3.2 11.3 0.00 0.00 0.00 42 1011.9
20260505081140 21 232 1.6 4.8 0.00 0.00 0.00 42 1011.9
20260505081026 21 232 0.0 4.8 0.00 0.00 0.00 42 1011.8
20260505080928 21 232 0.0 0.0 0.00 0.00 0.00 42 1011.9
20260505080816 21 232 0.0 0.0 0.00 0.00 0.00 42 1011.9
20260505080717 21 232 0.0 0.0 0.00 0.00 0.00 42 1011.9
20260505080646 21 231 0.0 0.0 0.00 0.00 0.00 42 1011.8
20260505080533 21 233 0.0 0.0 0.00 0.00 0.00 42 1011.9
20260505080434 21 232 0.0 0.0 0.00 0.00 0.00 42 1011.8
20260505080320 21 233 0.0 0.0 0.00 0.00 0.00 42 1011.7
20260505080222 21 235 0.0 0.0 0.00 0.00 0.00 41 1011.7
20260505080131 21 236 0.0 0.0 0.00 0.00 0.00 41 1011.7
20260505080113 21 236 0.0 0.0 0.00 0.00 0.00 41 1011.7
20260505075921 21 236 0.0 0.0 0.00 0.00 0.00 41 1011.6
20260505075843 21 236 0.0 0.0 0.00 0.00 0.00 41 1011.7
20260505075731 21 235 0.0 0.0 0.00 0.00 0.00 41 1011.6
20260505075617 21 236 0.0 0.0 0.00 0.00 0.00 41 1011.6
20260505075519 21 236 0.0 0.0 0.00 0.00 0.00 41 1011.7
20260505075420 21 236 0.0 0.0 0.00 0.00 0.00 41 1011.6
20260505075329 21 236 0.0 0.0 0.00 0.00 0.00 41 1011.7
20260505075237 21 236 0.0 0.0 0.00 0.00 0.00 41 1011.7
20260505075139 21 236 0.0 0.0 0.00 0.00 0.00 41 1011.7
20260505075019 21 236 0.0 0.0 0.00 0.00 0.00 41 1011.7
20260505074933 21 236 0.0 0.0 0.00 0.00 0.00 41 1011.7
20260505074855 21 236 0.0 0.0 0.00 0.00 0.00 41 1011.7
20260505074721 21 236 0.0 0.0 0.00 0.00 0.00 42 1011.7
20260505074623 21 236 0.0 0.0 0.00 0.00 0.00 41 1011.8
20260505074552 21 236 0.0 0.0 0.00 0.00 0.00 41 1011.8
20260505074433 21 236 0.0 0.0 0.00 0.00 0.00 41 1011.8
20260505074334 21 236 0.0 0.0 0.00 0.00 0.00 41 1011.8
20260505074230 21 236 0.0 0.0 0.00 0.00 0.00 41 1011.8
20260505074130 21 236 0.0 0.0 0.00 0.00 0.00 41 1011.8
20260505074058 21 236 0.0 0.0 0.00 0.00 0.00 41 1011.7
20260505073919 21 236 0.0 0.0 0.00 0.00 0.00 41 1011.8
20260505073821 21 236 0.0 0.0 0.00 0.00 0.00 41 1011.7
20260505073724 21 236 0.0 0.0 0.00 0.00 0.00 41 1011.7
20260505073653 21 236 0.0 0.0 0.00 0.00 0.00 41 1011.7
20260505073536 21 236 0.0 0.0 0.00 0.00 0.00 41 1011.7
20260505073417 21 236 0.0 0.0 0.00 0.00 0.00 41 1011.7
20260505073346 21 236 0.0 0.0 0.00 0.00 0.00 41 1011.7
20260505073226 21 236 0.0 0.0 0.00 0.00 0.00 41 1011.7
20260505073136 21 236 0.0 0.0 0.00 0.00 0.00 41 1011.7
20260505073018 21 236 0.0 0.0 0.00 0.00 0.00 41 1011.7
20260505072924 21 236 0.0 0.0 0.00 0.00 0.00 41 1011.6
20260505072825 21 236 0.0 0.0 0.00 0.00 0.00 41 1011.5
20260505072731 21 236 0.0 0.0 0.00 0.00 0.00 41 1011.5
20260505072641 21 236 0.0 0.0 0.00 0.00 0.00 41 1011.5
20260505072523 21 236 0.0 0.0 0.00 0.00 0.00 41 1011.4
20260505072423 21 236 0.0 0.0 0.00 0.00 0.00 41 1011.4
20260505072329 21 236 0.0 0.0 0.00 0.00 0.00 41 1011.3
20260505072237 21 236 0.0 0.0 0.00 0.00 0.00 41 1011.3
20260505072118 21 236 0.0 0.0 0.00 0.00 0.00 41 1011.5
20260505072027 21 236 0.0 0.0 0.00 0.00 0.00 41 1011.3
20260505071929 21 236 0.0 0.0 0.00 0.00 0.00 41 1011.4
20260505071830 21 236 0.0 0.0 0.00 0.00 0.00 41 1011.3
20260505071740 21 236 0.0 0.0 0.00 0.00 0.00 41 1011.3
20260505071626 21 236 0.0 0.0 0.00 0.00 0.00 41 1011.4
20260505071529 21 236 0.0 0.0 0.00 0.00 0.00 41 1011.4
20260505071429 21 236 0.0 0.0 0.00 0.00 0.00 41 1011.5
20260505071339 21 236 0.0 0.0 0.00 0.00 0.00 41 1011.5
20260505071221 21 236 0.0 0.0 0.00 0.00 0.00 40 1011.6
20260505071143 21 236 0.0 0.0 0.00 0.00 0.00 41 1011.6
20260505071034 21 236 0.0 0.0 0.00 0.00 0.00 41 1011.6
20260505070917 21 236 0.0 0.0 0.00 0.00 0.00 41 1011.7
20260505070824 21 236 0.0 0.0 0.00 0.00 0.00 41 1011.6
20260505070726 21 236 0.0 0.0 0.00 0.00 0.00 40 1011.7
20260505070629 22 238 0.0 4.8 0.00 0.00 0.00 41 1011.7
20260505070537 22 238 0.0 4.8 0.00 0.00 0.00 41 1011.7
20260505070423 22 238 0.0 4.8 0.00 0.00 0.00 40 1011.6
20260505070324 22 238 0.0 4.8 0.00 0.00 0.00 40 1011.5
20260505070225 22 238 0.0 6.4 0.00 0.00 0.00 40 1011.6
20260505070135 22 238 0.0 6.4 0.00 0.00 0.00 40 1011.6
20260505070028 22 238 0.0 6.4 0.00 0.00 0.00 40 1011.6
20260505065918 22 238 1.6 6.4 0.00 0.00 0.00 40 1011.6
20260505065848 22 238 1.6 6.4 0.00 0.00 0.00 40 1011.7
20260505065800 22 240 1.6 8.0 0.00 0.00 0.00 40 1011.7
20260505065640 22 239 0.0 8.0 0.00 0.00 0.00 40 1011.6
20260505065521 22 238 0.0 8.0 0.00 0.00 0.00 40 1011.6
20260505065430 22 238 0.0 8.0 0.00 0.00 0.00 40 1011.7
20260505065351 22 240 0.0 8.0 0.00 0.00 0.00 40 1011.6
20260505065240 22 240 0.0 8.0 0.00 0.00 0.00 40 1011.6
20260505065121 22 241 0.0 8.0 0.00 0.00 0.00 40 1011.7
20260505065028 22 241 1.6 8.0 0.00 0.00 0.00 40 1011.7
20260505064929 22 241 3.2 8.0 0.00 0.00 0.00 40 1011.7
20260505064840 22 240 1.6 8.0 0.00 0.00 0.00 40 1011.7
20260505064722 22 242 0.0 1.6 0.00 0.00 0.00 40 1011.8
20260505064624 22 245 0.0 0.0 0.00 0.00 0.00 40 1011.7
20260505064527 22 245 0.0 0.0 0.00 0.00 0.00 40 1011.7
20260505064420 22 245 0.0 0.0 0.00 0.00 0.00 40 1011.6
20260505064322 22 245 0.0 0.0 0.00 0.00 0.00 40 1011.7
20260505064229 22 245 0.0 0.0 0.00 0.00 0.00 40 1011.6
20260505064129 22 245 0.0 0.0 0.00 0.00 0.00 40 1011.6
20260505064043 22 245 0.0 0.0 0.00 0.00 0.00 40 1011.6
20260505063832 22 245 0.0 0.0 0.00 0.00 0.00 40 1011.5
20260505063801 22 245 0.0 0.0 0.00 0.00 0.00 40 1011.6
20260505063622 22 245 0.0 1.6 0.00 0.00 0.00 41 1011.5
20260505063523 22 245 0.0 1.6 0.00 0.00 0.00 41 1011.6
20260505063425 22 247 0.0 1.6 0.00 0.00 0.00 41 1011.6
20260505063334 22 247 0.0 1.6 0.00 0.00 0.00 41 1011.5
20260505063220 22 247 0.0 1.6 0.00 0.00 0.00 41 1011.6
20260505063142 22 247 0.0 1.6 0.00 0.00 0.00 41 1011.6
20260505063050 22 247 0.0 1.6 0.00 0.00 0.00 42 1011.5
20260505062959 22 247 0.0 1.6 0.00 0.00 0.00 42 1011.5
20260505062818 22 247 0.0 1.6 0.00 0.00 0.00 42 1011.4
20260505062726 22 247 0.0 1.6 0.00 0.00 0.00 42 1011.4
20260505062628 22 247 0.0 0.0 0.00 0.00 0.00 43 1011.4
20260505062537 22 247 0.0 0.0 0.00 0.00 0.00 43 1011.4
20260505062424 22 246 0.0 0.0 0.00 0.00 0.00 44 1011.3
20260505062325 22 247 0.0 0.0 0.00 0.00 0.00 45 1011.3
20260505062228 22 247 0.0 0.0 0.00 0.00 0.00 45 1011.3
20260505062136 22 246 0.0 0.0 0.00 0.00 0.00 45 1011.3
20260505062018 22 247 0.0 0.0 0.00 0.00 0.00 45 1011.2
20260505061920 22 246 0.0 0.0 0.00 0.00 0.00 45 1011.2
20260505061853 22 246 0.0 1.6 0.00 0.00 0.00 45 1011.2
20260505061734 22 246 0.0 3.2 0.00 0.00 0.00 45 1011.2
20260505061636 22 246 0.0 3.2 0.00 0.00 0.00 45 1011.2
20260505061525 22 246 0.0 3.2 0.00 0.00 0.00 45 1011.2
20260505061428 22 246 0.0 3.2 0.00 0.00 0.00 45 1011.1
20260505061330 22 246 0.0 3.2 0.00 0.00 0.00 45 1011.1
20260505061216 22 247 0.0 3.2 0.00 0.00 0.00 45 1011.2
20260505061124 22 246 0.0 3.2 0.00 0.00 0.00 45 1011.1
20260505061026 22 246 0.0 3.2 0.00 0.00 0.00 45 1011.1
20260505060927 22 247 0.0 3.2 0.00 0.00 0.00 45 1011.0
20260505060816 22 247 0.0 6.4 0.00 0.00 0.00 45 1011.1
20260505060745 22 247 0.0 6.4 0.00 0.00 0.00 45 1011.1
20260505060624 22 247 0.0 6.4 0.00 0.00 0.00 45 1011.1
20260505060533 22 247 0.0 6.4 0.00 0.00 0.00 45 1011.0
20260505060420 22 245 0.0 6.4 0.00 0.00 0.00 45 1011.1
20260505060322 22 245 0.0 6.4 0.00 0.00 0.00 45 1011.0
20260505060224 22 245 1.6 6.4 0.00 0.00 0.00 45 1011.0
20260505060132 22 245 1.6 6.4 0.00 0.00 0.00 45 1011.0
20260505060114 22 246 1.6 6.4 0.00 0.00 0.00 45 1011.0
20260505055920 22 245 0.0 0.0 0.00 0.00 0.00 45 1010.9
20260505055826 22 245 0.0 0.0 0.00 0.00 0.00 45 1010.8
20260505055728 22 245 0.0 0.0 0.00 0.00 0.00 45 1010.8
20260505055616 22 245 0.0 0.0 0.00 0.00 0.00 45 1010.8
20260505055517 22 245 0.0 0.0 0.00 0.00 0.00 45 1010.7
20260505055447 22 245 0.0 0.0 0.00 0.00 0.00 45 1010.7
20260505055328 22 245 0.0 0.0 0.00 0.00 0.00 45 1010.7
20260505055229 22 245 0.0 0.0 0.00 0.00 0.00 45 1010.7
20260505055132 22 245 0.0 0.0 0.00 0.00 0.00 45 1010.8
20260505055033 22 245 0.0 0.0 0.00 0.00 0.00 45 1010.7
20260505054916 22 245 0.0 0.0 0.00 0.00 0.00 45 1010.8
20260505054818 22 245 0.0 0.0 0.00 0.00 0.00 45 1010.8
20260505054727 22 245 0.0 0.0 0.00 0.00 0.00 45 1010.8
20260505054628 22 245 0.0 0.0 0.00 0.00 0.00 45 1010.9
20260505054543 22 245 0.0 0.0 0.00 0.00 0.00 45 1010.8
20260505054441 22 245 0.0 0.0 0.00 0.00 0.00 45 1010.8
20260505054329 22 245 0.0 0.0 0.00 0.00 0.00 45 1010.8
20260505054252 22 245 0.0 0.0 0.00 0.00 0.00 45 1010.8
20260505054221 22 245 0.0 0.0 0.00 0.00 0.00 44 1010.8
20260505053922 22 245 0.0 0.0 0.00 0.00 0.00 44 1010.9
20260505053824 22 245 0.0 0.0 0.00 0.00 0.00 44 1010.9
20260505053732 22 245 0.0 0.0 0.00 0.00 0.00 44 1010.8
20260505053640 22 245 0.0 0.0 0.00 0.00 0.00 44 1010.9
20260505053521 22 245 0.0 0.0 0.00 0.00 0.00 44 1010.9
20260505053442 22 245 0.0 0.0 0.00 0.00 0.00 44 1010.9
20260505053330 22 245 0.0 0.0 0.00 0.00 0.00 44 1010.8
20260505053231 22 245 0.0 0.0 0.00 0.00 0.00 44 1010.9
20260505053139 22 245 0.0 0.0 0.00 0.00 0.00 44 1010.9
20260505053024 22 245 0.0 0.0 0.00 0.00 0.00 44 1010.9
20260505052932 22 245 0.0 0.0 0.00 0.00 0.00 44 1011.0
20260505052835 22 245 0.0 0.0 0.00 0.00 0.00 44 1011.0
20260505052717 22 245 0.0 0.0 0.00 0.00 0.00 44 1011.1
20260505052618 22 245 0.0 0.0 0.00 0.00 0.00 44 1011.2
20260505052526 22 245 0.0 0.0 0.00 0.00 0.00 44 1011.2
20260505052453 22 245 0.0 0.0 0.00 0.00 0.00 44 1011.3
20260505052319 22 245 0.0 0.0 0.00 0.00 0.00 44 1011.3
20260505052221 22 245 0.0 0.0 0.00 0.00 0.00 44 1011.3
20260505052128 22 245 0.0 0.0 0.00 0.00 0.00 44 1011.2
20260505052050 22 245 0.0 0.0 0.00 0.00 0.00 44 1011.3
20260505051938 22 245 0.0 0.0 0.00 0.00 0.00 44 1011.3
20260505051846 22 245 0.0 0.0 0.00 0.00 0.00 44 1011.3
20260505051727 22 245 0.0 0.0 0.00 0.00 0.00 44 1011.3
20260505051633 22 245 0.0 0.0 0.00 0.00 0.00 44 1011.2
20260505051543 22 245 0.0 0.0 0.00 0.00 0.00 44 1011.2
20260505051444 22 245 0.0 0.0 0.00 0.00 0.00 44 1011.3
20260505051352 22 245 0.0 0.0 0.00 0.00 0.00 44 1011.3
20260505051231 22 245 0.0 0.0 0.00 0.00 0.00 44 1011.4
20260505051140 22 245 0.0 0.0 0.00 0.00 0.00 44 1011.4
20260505051020 22 245 0.0 0.0 0.00 0.00 0.00 44 1011.5
20260505050949 22 245 0.0 0.0 0.00 0.00 0.00 44 1011.4
20260505050834 22 245 0.0 0.0 0.00 0.00 0.00 44 1011.4
20260505050743 22 245 0.0 0.0 0.00 0.00 0.00 44 1011.6
20260505050643 22 245 0.0 0.0 0.00 0.00 0.00 44 1011.6
20260505050531 22 245 0.0 0.0 0.00 0.00 0.00 44 1011.6
20260505050453 22 245 0.0 0.0 0.00 0.00 0.00 44 1011.5
20260505050342 22 245 0.0 0.0 0.00 0.00 0.00 44 1011.5
20260505050223 22 245 0.0 0.0 0.00 0.00 0.00 45 1011.6
20260505050129 22 245 0.0 0.0 0.00 0.00 0.00 45 1011.6
20260505041730 22 245 0.0 3.2 0.00 0.00 0.00 42 1011.6
20260505041659 22 245 0.0 3.2 0.00 0.00 0.00 42 1011.5
20260505041524 22 245 0.0 3.2 0.00 0.00 0.00 42 1011.6
20260505041447 22 245 0.0 3.2 0.00 0.00 0.00 42 1011.5
20260505041335 22 245 0.0 3.2 0.00 0.00 0.00 42 1011.5
20260505041237 22 245 0.0 3.2 0.00 0.00 0.00 42 1011.4
20260505041124 22 245 0.0 3.2 0.00 0.00 0.00 42 1011.4
20260505041026 22 245 0.0 3.2 0.00 0.00 0.00 42 1011.4
20260505040934 22 245 0.0 0.0 0.00 0.00 0.00 42 1011.4
20260505040818 22 245 0.0 0.0 0.00 0.00 0.00 42 1011.4
20260505040721 22 245 0.0 0.0 0.00 0.00 0.00 41 1011.3
20260505040630 22 245 0.0 0.0 0.00 0.00 0.00 41 1011.3
20260505040551 22 245 0.0 0.0 0.00 0.00 0.00 41 1011.4
20260505040439 22 245 0.0 0.0 0.00 0.00 0.00 41 1011.4
20260505040320 22 245 0.0 0.0 0.00 0.00 0.00 41 1011.3
20260505040222 22 245 0.0 0.0 0.00 0.00 0.00 41 1011.2
20260505040127 22 245 0.0 0.0 0.00 0.00 0.00 40 1011.4
20260505040028 22 245 0.0 0.0 0.00 0.00 0.00 40 1011.4
20260505035917 22 245 0.0 0.0 0.00 0.00 0.00 40 1011.3
20260505035820 22 245 0.0 0.0 0.00 0.00 0.00 40 1011.3
20260505035729 22 245 0.0 0.0 0.00 0.00 0.00 40 1011.4
20260505035631 22 245 0.0 0.0 0.00 0.00 0.00 40 1011.4
20260505035517 22 245 0.0 0.0 0.00 0.00 0.00 40 1011.4
20260505035446 22 245 0.0 0.0 0.00 0.00 0.00 40 1011.3
20260505035326 22 245 0.0 0.0 0.00 0.00 0.00 40 1011.3
20260505035228 22 245 0.0 0.0 0.00 0.00 0.00 40 1011.4
20260505035137 22 245 0.0 0.0 0.00 0.00 0.00 40 1011.3
20260505035018 22 245 0.0 0.0 0.00 0.00 0.00 40 1011.4
20260505034923 23 245 0.0 0.0 0.00 0.00 0.00 40 1011.4
20260505034832 23 245 0.0 0.0 0.00 0.00 0.00 39 1011.5
20260505034735 23 245 0.0 0.0 0.00 0.00 0.00 39 1011.5
20260505034617 23 245 0.0 0.0 0.00 0.00 0.00 40 1011.6
20260505034520 23 245 0.0 0.0 0.00 0.00 0.00 40 1011.6
20260505034429 23 245 0.0 0.0 0.00 0.00 0.00 40 1011.6
20260505034315 23 245 0.0 0.0 0.00 0.00 0.00 40 1011.5
20260505034244 23 245 0.0 0.0 0.00 0.00 0.00 40 1011.4
20260505034126 23 245 0.0 0.0 0.00 0.00 0.00 40 1011.4
20260505034029 23 245 0.0 0.0 0.00 0.00 0.00 39 1011.5
20260505033938 23 245 0.0 0.0 0.00 0.00 0.00 39 1011.4
20260505033818 23 245 0.0 0.0 0.00 0.00 0.00 39 1011.4
20260505033720 23 245 0.0 0.0 0.00 0.00 0.00 39 1011.4
20260505033633 23 245 0.0 0.0 0.00 0.00 0.00 39 1011.3
20260505033534 23 245 0.0 0.0 0.00 0.00 0.00 39 1011.2
20260505033443 23 245 0.0 0.0 0.00 0.00 0.00 39 1011.2
20260505033344 23 245 0.0 0.0 0.00 0.00 0.00 39 1011.2
20260505033231 23 245 0.0 0.0 0.00 0.00 0.00 39 1011.2
20260505033154 23 245 0.0 0.0 0.00 0.00 0.00 39 1011.1
20260505033042 23 245 0.0 0.0 0.00 0.00 0.00 39 1011.1
20260505032947 23 245 0.0 0.0 0.00 0.00 0.00 39 1011.0
20260505032854 23 245 0.0 0.0 0.00 0.00 0.00 39 1011.0
20260505032735 23 245 0.0 0.0 0.00 0.00 0.00 39 1010.9
20260505032616 23 245 0.0 0.0 0.00 0.00 0.00 39 1011.0
20260505032518 23 245 0.0 0.0 0.00 0.00 0.00 39 1010.9
20260505032427 23 245 0.0 0.0 0.00 0.00 0.00 39 1010.8
20260505032329 23 245 0.0 3.2 0.00 0.00 0.00 39 1010.9
20260505032235 23 245 0.0 3.2 0.00 0.00 0.00 39 1010.8
20260505032116 23 245 0.0 3.2 0.00 0.00 0.00 39 1010.9
20260505032047 23 245 0.0 3.2 0.00 0.00 0.00 38 1011.0
20260505031935 23 245 0.0 3.2 0.00 0.00 0.00 39 1011.0
20260505031816 23 245 0.0 3.2 0.00 0.00 0.00 39 1010.9
20260505031718 23 245 0.0 3.2 0.00 0.00 0.00 39 1011.0
20260505031631 23 245 0.0 3.2 0.00 0.00 0.00 39 1010.8
20260505031533 23 245 0.0 3.2 0.00 0.00 0.00 39 1010.8
20260505031415 23 245 0.0 1.6 0.00 0.00 0.00 39 1010.8
20260505031318 23 245 0.0 0.0 0.00 0.00 0.00 39 1010.8
20260505031227 23 245 0.0 0.0 0.00 0.00 0.00 39 1010.8
20260505031129 23 245 0.0 0.0 0.00 0.00 0.00 39 1010.7
20260505031015 23 245 0.0 0.0 0.00 0.00 0.00 39 1010.7
20260505030919 23 245 0.0 0.0 0.00 0.00 0.00 39 1010.6
20260505030826 23 245 0.0 0.0 0.00 0.00 0.00 39 1010.6
20260505030755 23 245 0.0 0.0 0.00 0.00 0.00 39 1010.6
20260505030636 23 245 0.0 0.0 0.00 0.00 0.00 39 1010.6
20260505030517 23 245 0.0 0.0 0.00 0.00 0.00 39 1010.7
20260505030418 23 245 0.0 0.0 0.00 0.00 0.00 39 1010.6
20260505030332 23 245 0.0 0.0 0.00 0.00 0.00 39 1010.7
20260505030234 23 245 0.0 0.0 0.00 0.00 0.00 39 1010.6
20260505030116 23 245 0.0 0.0 0.00 0.00 0.00 39 1010.6
20260505030035 23 245 0.0 0.0 0.00 0.00 0.00 39 1010.6
20260505025934 23 245 0.0 0.0 0.00 0.00 0.00 40 1010.6
20260505025816 23 245 0.0 0.0 0.00 0.00 0.00 40 1010.5
20260505025719 23 245 0.0 0.0 0.00 0.00 0.00 40 1010.5
20260505025649 23 245 0.0 0.0 0.00 0.00 0.00 40 1010.5
20260505025530 23 245 0.0 0.0 0.00 0.00 0.00 40 1010.6
20260505025417 23 245 0.0 0.0 0.00 0.00 0.00 40 1010.5
20260505025340 23 245 0.0 0.0 0.00 0.00 0.00 40 1010.5
20260505025247 23 245 0.0 0.0 0.00 0.00 0.00 40 1010.5
20260505025136 23 245 0.0 0.0 0.00 0.00 0.00 40 1010.5
20260505025036 23 245 0.0 0.0 0.00 0.00 0.00 40 1010.4
20260505024942 23 245 0.0 0.0 0.00 0.00 0.00 40 1010.4
20260505024830 23 245 0.0 0.0 0.00 0.00 0.00 40 1010.4
20260505024733 23 245 0.0 0.0 0.00 0.00 0.00 40 1010.4
20260505024641 23 245 0.0 0.0 0.00 0.00 0.00 40 1010.4
20260505024543 23 245 0.0 0.0 0.00 0.00 0.00 40 1010.5
20260505024425 23 245 0.0 0.0 0.00 0.00 0.00 40 1010.5
20260505024334 23 245 0.0 0.0 0.00 0.00 0.00 40 1010.6
20260505024239 23 245 0.0 3.2 0.00 0.00 0.00 40 1010.5
20260505024120 23 245 0.0 3.2 0.00 0.00 0.00 40 1010.5
20260505024049 23 245 0.0 3.2 0.00 0.00 0.00 40 1010.5
20260505023916 23 245 0.0 4.8 0.00 0.00 0.00 40 1010.5
20260505023817 23 245 0.0 4.8 0.00 0.00 0.00 40 1010.5
20260505023745 23 245 0.0 4.8 0.00 0.00 0.00 40 1010.5
20260505023625 23 245 0.0 4.8 0.00 0.00 0.00 40 1010.5
20260505023527 23 245 0.0 4.8 0.00 0.00 0.00 40 1010.5
20260505023439 23 245 0.0 8.0 0.00 0.00 0.00 40 1010.6
20260505023320 23 245 0.0 9.7 0.00 0.00 0.00 40 1010.6
20260505023222 23 245 0.0 9.7 0.00 0.00 0.00 40 1010.7
20260505023124 23 245 0.0 9.7 0.00 0.00 0.00 40 1010.7
20260505023032 23 245 0.0 9.7 0.00 0.00 0.00 40 1010.7
20260505022934 23 241 0.0 9.7 0.00 0.00 0.00 41 1010.7
20260505022819 23 238 0.0 9.7 0.00 0.00 0.00 41 1010.7
20260505022728 23 238 1.6 9.7 0.00 0.00 0.00 41 1010.7
20260505022631 23 240 3.2 9.7 0.00 0.00 0.00 41 1010.6
20260505022532 23 239 1.6 9.7 0.00 0.00 0.00 41 1010.5
20260505022441 23 234 1.6 9.7 0.00 0.00 0.00 42 1010.5
20260505022323 23 232 1.6 9.7 0.00 0.00 0.00 43 1010.6
20260505022229 23 222 3.2 9.7 0.00 0.00 0.00 43 1010.5
20260505022138 23 218 3.2 9.7 0.00 0.00 0.00 43 1010.5
20260505022019 23 217 1.6 8.0 0.00 0.00 0.00 43 1010.5
20260505021922 23 223 1.6 8.0 0.00 0.00 0.00 43 1010.6
20260505021829 23 223 1.6 8.0 0.00 0.00 0.00 43 1010.5
20260505021730 23 255 1.6 8.0 0.00 0.00 0.00 43 1010.5
20260505021639 23 243 1.6 8.0 0.00 0.00 0.00 43 1010.5
20260505021544 23 245 0.0 8.0 0.00 0.00 0.00 43 1010.4
20260505021425 23 244 1.6 9.7 0.00 0.00 0.00 43 1010.4
20260505021333 23 244 1.6 9.7 0.00 0.00 0.00 43 1010.4
20260505021243 23 240 1.6 12.9 0.00 0.00 0.00 43 1010.4
20260505021124 23 240 0.0 12.9 0.00 0.00 0.00 43 1010.5
20260505021024 23 240 0.0 12.9 0.00 0.00 0.00 43 1010.6
20260505020930 23 240 0.0 12.9 0.00 0.00 0.00 43 1010.6
20260505020839 23 240 3.2 12.9 0.00 0.00 0.00 43 1010.5
20260505020741 23 238 4.8 12.9 0.00 0.00 0.00 43 1010.5
20260505020622 23 240 4.8 12.9 0.00 0.00 0.00 43 1010.3
20260505020529 23 233 3.2 12.9 0.00 0.00 0.00 43 1010.3
20260505020430 23 225 3.2 12.9 0.00 0.00 0.00 43 1010.4
20260505020340 23 231 3.2 8.0 0.00 0.00 0.00 43 1010.4
20260505020225 23 223 3.2 8.0 0.00 0.00 0.00 43 1010.4
20260505020124 23 244 3.2 8.0 0.00 0.00 0.00 43 1010.5
20260505020047 23 238 3.2 8.0 0.00 0.00 0.00 43 1010.5
20260505015937 23 242 0.0 9.7 0.00 0.00 0.00 43 1010.5
20260505015818 23 242 0.0 9.7 0.00 0.00 0.00 43 1010.5
20260505015728 23 243 0.0 9.7 0.00 0.00 0.00 43 1010.5
20260505015634 23 243 1.6 9.7 0.00 0.00 0.00 43 1010.5
20260505015542 23 242 1.6 9.7 0.00 0.00 0.00 43 1010.5
20260505015423 23 240 1.6 9.7 0.00 0.00 0.00 43 1010.5
20260505015325 23 234 1.6 9.7 0.00 0.00 0.00 43 1010.5
20260505015227 23 233 3.2 9.7 0.00 0.00 0.00 43 1010.5
20260505015137 23 228 3.2 9.7 0.00 0.00 0.00 43 1010.5
20260505015022 23 251 1.6 9.7 0.00 0.00 0.00 43 1010.6
20260505014952 23 250 3.2 9.7 0.00 0.00 0.00 43 1010.5
20260505014833 23 252 1.6 9.7 0.00 0.00 0.00 43 1010.5
20260505014734 23 261 1.6 9.7 0.00 0.00 0.00 43 1010.6
20260505014617 23 274 3.2 9.7 0.00 0.00 0.00 43 1010.6
20260505014525 23 229 1.6 11.3 0.00 0.00 0.00 43 1010.5
20260505014427 23 288 0.0 11.3 0.00 0.00 0.00 43 1010.5
20260505014401 23 252 0.0 12.9 0.00 0.00 0.00 43 1010.5
20260505014221 23 251 0.0 12.9 0.00 0.00 0.00 43 1010.5
20260505014123 23 251 0.0 12.9 0.00 0.00 0.00 43 1010.5
20260505014031 23 252 1.6 12.9 0.00 0.00 0.00 43 1010.4
20260505013932 23 252 3.2 12.9 0.00 0.00 0.00 43 1010.4
20260505013833 23 240 3.2 12.9 0.00 0.00 0.00 43 1010.4
20260505013720 23 242 4.8 12.9 0.00 0.00 0.00 43 1010.5
20260505013629 23 224 4.8 12.9 0.00 0.00 0.00 43 1010.5
20260505013531 23 245 1.6 11.3 0.00 0.00 0.00 43 1010.4
20260505013433 23 257 0.0 11.3 0.00 0.00 0.00 43 1010.4
20260505013316 23 258 1.6 11.3 0.00 0.00 0.00 43 1010.4
20260505013224 24 258 1.6 11.3 0.00 0.00 0.00 43 1010.5
20260505013132 24 258 1.6 11.3 0.00 0.00 0.00 43 1010.4
20260505013018 24 255 3.2 11.3 0.00 0.00 0.00 43 1010.5
20260505012921 24 253 3.2 11.3 0.00 0.00 0.00 43 1010.5
20260505012850 24 263 3.2 9.7 0.00 0.00 0.00 43 1010.4
20260505012730 24 256 1.6 9.7 0.00 0.00 0.00 43 1010.4
20260505012633 24 263 1.6 9.7 0.00 0.00 0.00 43 1010.4
20260505012520 24 266 3.2 9.7 0.00 0.00 0.00 42 1010.4
20260505012442 24 276 3.2 9.7 0.00 0.00 0.00 43 1010.5
20260505012334 24 269 3.2 9.7 0.00 0.00 0.00 43 1010.4
20260505012216 24 228 3.2 9.7 0.00 0.00 0.00 43 1010.4
20260505012118 24 255 1.6 9.7 0.00 0.00 0.00 43 1010.5
20260505012028 24 261 1.6 9.7 0.00 0.00 0.00 43 1010.4
20260505011930 24 261 1.6 9.7 0.00 0.00 0.00 43 1010.4
20260505011816 24 269 1.6 9.7 0.00 0.00 0.00 43 1010.4
20260505011745 24 283 1.6 9.7 0.00 0.00 0.00 43 1010.4
20260505011624 24 283 3.2 9.7 0.00 0.00 0.00 42 1010.4
20260505011534 24 280 3.2 9.7 0.00 0.00 0.00 42 1010.5
20260505011434 24 278 3.2 9.7 0.00 0.00 0.00 42 1010.5
20260505011320 24 255 1.6 9.7 0.00 0.00 0.00 42 1010.4
20260505011223 24 252 3.2 9.7 0.00 0.00 0.00 42 1010.4
20260505011124 24 252 3.2 9.7 0.00 0.00 0.00 42 1010.4
20260505011037 24 255 1.6 9.7 0.00 0.00 0.00 42 1010.5
20260505010946 24 219 0.0 9.7 0.00 0.00 0.00 42 1010.4
20260505010826 24 215 1.6 9.7 0.00 0.00 0.00 42 1010.4
20260505010728 24 215 1.6 9.7 0.00 0.00 0.00 42 1010.4
20260505010637 24 214 3.2 9.7 0.00 0.00 0.00 42 1010.4
20260505010516 24 214 1.6 9.7 0.00 0.00 0.00 42 1010.5
20260505010423 24 257 0.0 3.2 0.00 0.00 0.00 42 1010.4
20260505010325 24 281 0.0 0.0 0.00 0.00 0.00 43 1010.5
20260505010231 24 259 0.0 0.0 0.00 0.00 0.00 44 1010.5
20260505010142 24 259 0.0 0.0 0.00 0.00 0.00 42 1010.5
20260505010035 24 259 0.0 0.0 0.00 0.00 0.00 42 1010.5
20260505005925 24 259 0.0 0.0 0.00 0.00 0.00 42 1010.6
20260505005834 24 259 0.0 1.6 0.00 0.00 0.00 42 1010.6
20260505005720 24 259 0.0 1.6 0.00 0.00 0.00 42 1010.6
20260505005621 24 259 0.0 1.6 0.00 0.00 0.00 42 1010.6
20260505005523 24 259 0.0 1.6 0.00 0.00 0.00 42 1010.5
20260505005430 24 259 0.0 4.8 0.00 0.00 0.00 42 1010.5
20260505005331 24 259 0.0 8.0 0.00 0.00 0.00 41 1010.5
20260505005240 24 259 0.0 8.0 0.00 0.00 0.00 41 1010.5
20260505005121 24 259 0.0 8.0 0.00 0.00 0.00 41 1010.4
20260505005034 24 259 0.0 8.0 0.00 0.00 0.00 41 1010.3
20260505004916 25 259 0.0 8.0 0.00 0.00 0.00 41 1010.4
20260505004819 25 259 0.0 8.0 0.00 0.00 0.00 41 1010.3
20260505004727 25 208 1.6 8.0 0.00 0.00 0.00 42 1010.4
20260505004629 25 208 3.2 8.0 0.00 0.00 0.00 41 1010.5
20260505004557 25 208 3.2 8.0 0.00 0.00 0.00 42 1010.4
20260505004418 25 179 1.6 4.8 0.00 0.00 0.00 42 1010.5
20260505004324 25 179 0.0 4.8 0.00 0.00 0.00 41 1010.5
20260505004231 25 178 0.0 4.8 0.00 0.00 0.00 41 1010.5
20260505004134 25 177 0.0 6.4 0.00 0.00 0.00 41 1010.6
20260505004017 25 176 0.0 6.4 0.00 0.00 0.00 41 1010.5
20260505003918 25 176 0.0 11.3 0.00 0.00 0.00 41 1010.5
20260505003828 25 176 0.0 11.3 0.00 0.00 0.00 41 1010.4
20260505003735 25 176 0.0 11.3 0.00 0.00 0.00 41 1010.5
20260505003616 25 176 0.0 11.3 0.00 0.00 0.00 41 1010.5
20260505003525 25 167 0.0 11.3 0.00 0.00 0.00 41 1010.5
20260505003426 25 145 1.6 11.3 0.00 0.00 0.00 40 1010.6
20260505003335 25 242 1.6 11.3 0.00 0.00 0.00 40 1010.6
20260505003217 25 245 3.2 11.3 0.00 0.00 0.00 40 1010.7
20260505003123 25 243 1.6 11.3 0.00 0.00 0.00 40 1010.7
20260505003027 25 285 1.6 8.0 0.00 0.00 0.00 40 1010.7
20260505002937 25 285 3.2 8.0 0.00 0.00 0.00 40 1010.6
20260505002818 25 276 1.6 11.3 0.00 0.00 0.00 40 1010.6
20260505002719 25 273 0.0 11.3 0.00 0.00 0.00 41 1010.6
20260505002628 25 195 1.6 11.3 0.00 0.00 0.00 41 1010.5
20260505002530 25 195 1.6 11.3 0.00 0.00 0.00 41 1010.7
20260505002416 25 194 1.6 11.3 0.00 0.00 0.00 41 1010.7
20260505002318 25 194 1.6 11.3 0.00 0.00 0.00 40 1010.6
20260505002226 25 239 3.2 11.3 0.00 0.00 0.00 40 1010.7
20260505002128 25 241 1.6 11.3 0.00 0.00 0.00 40 1010.8
20260505002037 25 243 1.6 11.3 0.00 0.00 0.00 40 1010.8
20260505001919 25 229 3.2 8.0 0.00 0.00 0.00 40 1010.8
20260505001825 25 236 3.2 9.7 0.00 0.00 0.00 40 1010.7
20260505001754 25 221 3.2 9.7 0.00 0.00 0.00 40 1010.7
20260505001635 25 193 3.2 11.3 0.00 0.00 0.00 40 1010.7
20260505001516 25 193 3.2 11.3 0.00 0.00 0.00 40 1010.7
20260505001425 25 250 3.2 11.3 0.00 0.00 0.00 40 1010.8
20260505001328 25 253 1.6 11.3 0.00 0.00 0.00 40 1010.8
20260505001235 25 250 1.6 11.3 0.00 0.00 0.00 40 1010.7
20260505001118 25 250 3.2 11.3 0.00 0.00 0.00 40 1010.7
20260505001027 25 246 4.8 11.3 0.00 0.00 0.00 40 1010.7
20260505000929 25 221 3.2 11.3 0.00 0.00 0.00 40 1010.7
20260505000839 25 236 3.2 11.3 0.00 0.00 0.00 40 1010.6
20260505000720 25 251 1.6 11.3 0.00 0.00 0.00 40 1010.7
20260505000624 25 250 1.6 11.3 0.00 0.00 0.00 40 1010.6
20260505000554 25 250 1.6 12.9 0.00 0.00 0.00 40 1010.7
20260505000434 25 250 4.8 12.9 0.00 0.00 0.00 40 1010.7
20260505000316 25 248 4.8 14.5 0.00 0.00 0.00 40 1010.7
20260505000244 25 245 1.6 14.5 0.00 0.00 0.00 40 1010.7
20260505000125 25 296 0.0 14.5 0.00 0.00 0.00 40 1010.7
20260505000047 25 224 1.6 14.5 0.00 0.00 0.00 40 1010.7
20260504235941 25 234 3.2 14.5 0.00 0.00 0.00 39 1010.6
20260504235821 25 236 4.8 14.5 0.00 0.00 0.00 39 1010.6
20260504235731 25 208 4.8 14.5 0.00 0.00 0.00 39 1010.6
20260504235632 25 233 6.4 14.5 0.00 0.00 0.00 39 1010.7
20260504235540 25 222 6.4 14.5 0.00 0.00 0.00 39 1010.6
20260504235420 25 241 4.8 12.9 0.00 0.00 0.00 39 1010.7
20260504235325 25 267 4.8 12.9 0.00 0.00 0.00 39 1010.7
20260504235227 25 236 3.2 12.9 0.00 0.00 0.00 38 1010.7
20260504235135 25 225 3.2 12.9 0.00 0.00 0.00 38 1010.7
20260504235017 25 238 3.2 12.9 0.00 0.00 0.00 38 1010.8
20260504234919 25 240 4.8 12.9 0.00 0.00 0.00 38 1010.7
20260504234848 25 243 4.8 12.9 0.00 0.00 0.00 38 1010.7
20260504234735 25 244 4.8 12.9 0.00 0.00 0.00 38 1010.7
20260504234621 25 245 4.8 12.9 0.00 0.00 0.00 38 1010.7
20260504234543 25 212 3.2 12.9 0.00 0.00 0.00 38 1010.8
20260504234429 25 233 3.2 12.9 0.00 0.00 0.00 38 1010.8
20260504234331 25 248 3.2 12.9 0.00 0.00 0.00 38 1010.8
20260504234239 25 238 1.6 12.9 0.00 0.00 0.00 39 1010.7
20260504234141 25 219 1.6 12.9 0.00 0.00 0.00 38 1010.8
20260504234021 25 219 3.2 12.9 0.00 0.00 0.00 38 1010.7
20260504233934 25 214 6.4 12.9 0.00 0.00 0.00 38 1010.7
20260504233903 25 242 6.4 12.9 0.00 0.00 0.00 38 1010.7
20260504233743 25 233 4.8 12.9 0.00 0.00 0.00 38 1010.8
20260504233625 25 200 4.8 12.9 0.00 0.00 0.00 38 1010.7
20260504233531 25 212 4.8 12.9 0.00 0.00 0.00 37 1011.0
20260504233434 25 256 1.6 12.9 0.00 0.00 0.00 37 1010.9
20260504233315 25 229 4.8 12.9 0.00 0.00 0.00 36 1010.9
20260504233228 25 233 8.0 12.9 0.00 0.00 0.00 35 1010.9
20260504233131 25 257 6.4 12.9 0.00 0.00 0.00 36 1010.9
20260504233032 25 265 6.4 11.3 0.00 0.00 0.00 36 1011.0
20260504232942 25 191 4.8 11.3 0.00 0.00 0.00 36 1011.0
20260504232824 25 132 1.6 11.3 0.00 0.00 0.00 36 1010.9
20260504232747 25 132 3.2 11.3 0.00 0.00 0.00 36 1010.9
20260504232655 25 233 1.6 11.3 0.00 0.00 0.00 37 1010.8
20260504232546 25 229 1.6 14.5 0.00 0.00 0.00 37 1010.8
20260504232427 25 229 1.6 14.5 0.00 0.00 0.00 37 1010.7
20260504232329 25 228 1.6 14.5 0.00 0.00 0.00 37 1010.8
20260504232238 25 221 1.6 14.5 0.00 0.00 0.00 37 1010.8
20260504232120 25 235 1.6 14.5 0.00 0.00 0.00 36 1010.9
20260504232022 25 238 0.0 19.3 0.00 0.00 0.00 36 1010.9
20260504231951 25 237 0.0 19.3 0.00 0.00 0.00 36 1011.0
20260504231816 25 237 1.6 19.3 0.00 0.00 0.00 36 1011.0
20260504231718 25 229 1.6 19.3 0.00 0.00 0.00 36 1010.9
20260504231620 25 191 0.0 19.3 0.00 0.00 0.00 36 1010.9
20260504231529 25 190 0.0 19.3 0.00 0.00 0.00 36 1010.8
20260504231431 25 248 1.6 19.3 0.00 0.00 0.00 37 1010.8
20260504231337 25 252 4.8 19.3 0.00 0.00 0.00 37 1010.9
20260504231222 25 230 6.4 19.3 0.00 0.00 0.00 37 1011.0
20260504231124 25 226 3.2 14.5 0.00 0.00 0.00 38 1010.8
20260504231053 25 217 3.2 14.5 0.00 0.00 0.00 38 1010.8
20260504230935 25 231 3.2 14.5 0.00 0.00 0.00 38 1010.9
20260504230816 25 236 4.8 14.5 0.00 0.00 0.00 38 1010.8
20260504230746 25 252 4.8 14.5 0.00 0.00 0.00 38 1010.9
20260504230653 25 231 3.2 11.3 0.00 0.00 0.00 38 1010.9
20260504230518 25 240 3.2 11.3 0.00 0.00 0.00 39 1010.8
20260504230420 25 242 3.2 11.3 0.00 0.00 0.00 39 1010.8
20260504230321 25 246 3.2 12.9 0.00 0.00 0.00 39 1010.8
20260504230230 25 226 1.6 12.9 0.00 0.00 0.00 39 1010.7
20260504230132 25 260 1.6 16.1 0.00 0.00 0.00 39 1010.7
20260504230033 25 259 3.2 16.1 0.00 0.00 0.00 39 1010.8
20260504225927 25 290 3.2 16.1 0.00 0.00 0.00 39 1010.9
20260504225829 25 238 3.2 16.1 0.00 0.00 0.00 39 1010.8
20260504225736 25 253 3.2 16.1 0.00 0.00 0.00 39 1011.0
20260504225617 25 220 4.8 16.1 0.00 0.00 0.00 40 1011.0
20260504225519 25 251 4.8 16.1 0.00 0.00 0.00 39 1011.0
20260504225428 25 265 4.8 16.1 0.00 0.00 0.00 40 1011.0
20260504225350 25 248 4.8 16.1 0.00 0.00 0.00 40 1011.0
20260504225215 25 301 1.6 14.5 0.00 0.00 0.00 40 1010.9
20260504225124 25 268 1.6 14.5 0.00 0.00 0.00 40 1010.9
20260504225025 25 266 1.6 14.5 0.00 0.00 0.00 40 1011.0
20260504224934 25 297 1.6 14.5 0.00 0.00 0.00 40 1010.9
20260504224835 25 309 1.6 14.5 0.00 0.00 0.00 41 1010.9
20260504224716 25 280 4.8 14.5 0.00 0.00 0.00 40 1010.9
20260504224622 25 293 3.2 11.3 0.00 0.00 0.00 40 1011.0
20260504224531 25 273 1.6 11.3 0.00 0.00 0.00 40 1011.0
20260504224453 25 238 3.2 11.3 0.00 0.00 0.00 40 1011.0
20260504224320 25 245 3.2 11.3 0.00 0.00 0.00 40 1011.1
20260504224222 25 269 3.2 11.3 0.00 0.00 0.00 40 1011.0
20260504224123 25 251 4.8 9.7 0.00 0.00 0.00 40 1011.0
20260504224052 25 213 4.8 9.7 0.00 0.00 0.00 40 1011.0
20260504224000 25 212 1.6 8.0 0.00 0.00 0.00 40 1011.0
20260504223824 25 266 0.0 9.7 0.00 0.00 0.00 40 1011.0
20260504223726 25 268 0.0 9.7 0.00 0.00 0.00 41 1010.9
20260504223636 25 268 0.0 12.9 0.00 0.00 0.00 41 1011.0
20260504223518 25 268 0.0 12.9 0.00 0.00 0.00 41 1011.0
20260504223418 25 269 0.0 12.9 0.00 0.00 0.00 41 1011.0
20260504223324 25 274 0.0 12.9 0.00 0.00 0.00 42 1011.0
20260504223231 25 274 1.6 12.9 0.00 0.00 0.00 41 1011.0
20260504223138 25 236 3.2 12.9 0.00 0.00 0.00 41 1011.0
20260504223021 25 269 4.8 17.7 0.00 0.00 0.00 41 1011.1
20260504222922 25 235 3.2 17.7 0.00 0.00 0.00 41 1011.2
20260504222852 25 261 1.6 17.7 0.00 0.00 0.00 41 1011.1
20260504222733 25 209 1.6 17.7 0.00 0.00 0.00 41 1011.1
20260504222619 25 207 1.6 17.7 0.00 0.00 0.00 41 1011.1
20260504222521 25 282 3.2 17.7 0.00 0.00 0.00 40 1011.1
20260504222431 25 276 3.2 17.7 0.00 0.00 0.00 41 1011.1
20260504222332 25 264 3.2 17.7 0.00 0.00 0.00 41 1011.1
20260504222304 25 266 3.2 17.7 0.00 0.00 0.00 41 1011.1
20260504222122 25 251 1.6 12.9 0.00 0.00 0.00 42 1011.2
20260504222024 25 249 3.2 12.9 0.00 0.00 0.00 42 1011.2
20260504221937 25 230 3.2 12.9 0.00 0.00 0.00 42 1011.2
20260504221840 25 234 3.2 12.9 0.00 0.00 0.00 41 1011.2
20260504221720 25 254 3.2 12.9 0.00 0.00 0.00 41 1011.2
20260504221630 25 252 1.6 12.9 0.00 0.00 0.00 41 1011.2
20260504221531 25 251 0.0 4.8 0.00 0.00 0.00 41 1011.3
20260504221432 25 245 0.0 11.3 0.00 0.00 0.00 41 1011.3
20260504221324 25 247 0.0 11.3 0.00 0.00 0.00 41 1011.3
20260504221246 25 229 0.0 14.5 0.00 0.00 0.00 41 1011.3
20260504221134 25 219 0.0 14.5 0.00 0.00 0.00 41 1011.3
20260504221056 25 216 0.0 14.5 0.00 0.00 0.00 41 1011.4
20260504220921 25 220 0.0 14.5 0.00 0.00 0.00 41 1011.4
20260504220824 25 240 0.0 14.5 0.00 0.00 0.00 41 1011.2
20260504220725 25 234 1.6 14.5 0.00 0.00 0.00 41 1011.2
20260504220618 25 245 4.8 14.5 0.00 0.00 0.00 41 1011.3
20260504220521 25 245 4.8 14.5 0.00 0.00 0.00 41 1011.2
20260504220423 25 212 4.8 14.5 0.00 0.00 0.00 41 1011.2
20260504220352 25 246 4.8 14.5 0.00 0.00 0.00 40 1011.2
20260504220232 25 235 6.4 14.5 0.00 0.00 0.00 40 1011.4
20260504220142 25 219 4.8 14.5 0.00 0.00 0.00 41 1011.4
20260504220034 25 227 6.4 14.5 0.00 0.00 0.00 41 1011.4
20260504215935 25 238 4.8 14.5 0.00 0.00 0.00 41 1011.4
20260504215818 25 264 3.2 12.9 0.00 0.00 0.00 41 1011.4
20260504215740 25 258 3.2 12.9 0.00 0.00 0.00 41 1011.5
20260504215628 25 221 3.2 12.9 0.00 0.00 0.00 41 1011.6
20260504215531 25 219 3.2 12.9 0.00 0.00 0.00 41 1011.6
20260504215432 25 223 3.2 16.1 0.00 0.00 0.00 41 1011.7
20260504215318 25 232 1.6 16.1 0.00 0.00 0.00 42 1011.7
20260504215227 24 258 0.0 16.1 0.00 0.00 0.00 42 1011.6
20260504215128 24 258 1.6 16.1 0.00 0.00 0.00 42 1011.6
20260504215059 24 259 3.2 16.1 0.00 0.00 0.00 42 1011.6
20260504214930 24 230 4.8 16.1 0.00 0.00 0.00 42 1011.5
20260504214837 24 258 6.4 16.1 0.00 0.00 0.00 42 1011.5
20260504214718 24 231 8.0 16.1 0.00 0.00 0.00 42 1011.6
20260504214623 24 252 8.0 16.1 0.00 0.00 0.00 42 1011.6
20260504214532 24 227 6.4 16.1 0.00 0.00 0.00 42 1011.6
20260504214434 24 259 6.4 16.1 0.00 0.00 0.00 42 1011.7
20260504214337 24 233 8.0 16.1 0.00 0.00 0.00 42 1011.7
20260504214225 24 231 9.7 16.1 0.00 0.00 0.00 42 1011.8
20260504214127 24 226 8.0 16.1 0.00 0.00 0.00 42 1011.7
20260504214028 24 260 6.4 16.1 0.00 0.00 0.00 42 1011.7
20260504213940 24 255 4.8 14.5 0.00 0.00 0.00 42 1011.8
20260504213818 24 203 4.8 14.5 0.00 0.00 0.00 42 1011.7
20260504213728 24 219 4.8 14.5 0.00 0.00 0.00 42 1011.7
20260504213631 24 227 4.8 14.5 0.00 0.00 0.00 43 1011.6
20260504213600 24 243 3.2 14.5 0.00 0.00 0.00 43 1011.7
20260504213421 23 234 3.2 14.5 0.00 0.00 0.00 42 1011.7
20260504213332 23 247 4.8 14.5 0.00 0.00 0.00 43 1011.8
20260504213252 23 238 6.4 14.5 0.00 0.00 0.00 43 1011.8
20260504213118 23 245 3.2 12.9 0.00 0.00 0.00 43 1011.9
20260504213026 23 254 0.0 12.9 0.00 0.00 0.00 43 1011.9
20260504212928 23 224 0.0 9.7 0.00 0.00 0.00 43 1012.0
20260504212829 23 224 0.0 9.7 0.00 0.00 0.00 42 1012.0
20260504212738 24 224 1.6 9.7 0.00 0.00 0.00 42 1012.0
20260504212618 24 223 3.2 9.7 0.00 0.00 0.00 43 1012.1
20260504212524 24 222 1.6 9.7 0.00 0.00 0.00 43 1012.2
20260504212434 24 210 1.6 9.7 0.00 0.00 0.00 43 1012.2
20260504212315 24 210 3.2 9.7 0.00 0.00 0.00 43 1012.3
20260504212245 24 250 3.2 9.7 0.00 0.00 0.00 42 1012.3
20260504212126 24 249 0.0 4.8 0.00 0.00 0.00 43 1012.4
20260504212028 24 249 0.0 0.0 0.00 0.00 0.00 44 1012.3
20260504211940 23 247 0.0 0.0 0.00 0.00 0.00 43 1012.3
20260504211822 23 245 0.0 0.0 0.00 0.00 0.00 43 1012.4
20260504211722 23 250 0.0 0.0 0.00 0.00 0.00 43 1012.4
20260504211631 23 242 0.0 0.0 0.00 0.00 0.00 44 1012.4
20260504211553 23 242 0.0 0.0 0.00 0.00 0.00 43 1012.3
20260504211441 23 207 0.0 0.0 0.00 0.00 0.00 44 1012.3
20260504211322 23 243 0.0 0.0 0.00 0.00 0.00 44 1012.2
20260504211227 23 243 0.0 0.0 0.00 0.00 0.00 44 1012.1
20260504211156 23 243 0.0 0.0 0.00 0.00 0.00 44 1012.2
20260504211018 23 243 0.0 3.2 0.00 0.00 0.00 44 1012.2
20260504210947 23 243 0.0 3.2 0.00 0.00 0.00 45 1012.2
20260504210828 23 243 0.0 8.0 0.00 0.00 0.00 45 1012.2
20260504210736 23 243 0.0 11.3 0.00 0.00 0.00 45 1012.2
20260504210619 23 243 0.0 14.5 0.00 0.00 0.00 45 1012.2
20260504210525 23 243 0.0 14.5 0.00 0.00 0.00 45 1012.2
20260504210427 23 243 0.0 14.5 0.00 0.00 0.00 45 1012.2
20260504210335 23 233 0.0 14.5 0.00 0.00 0.00 45 1012.3
20260504210218 23 227 1.6 14.5 0.00 0.00 0.00 45 1012.3
20260504210120 23 222 3.2 14.5 0.00 0.00 0.00 44 1012.4
20260504210042 23 222 4.8 14.5 0.00 0.00 0.00 44 1012.4
20260504205953 23 198 6.4 14.5 0.00 0.00 0.00 44 1012.3
20260504205841 23 223 3.2 14.5 0.00 0.00 0.00 44 1012.3
20260504205723 23 254 0.0 11.3 0.00 0.00 0.00 45 1012.5
20260504205626 23 254 1.6 11.3 0.00 0.00 0.00 45 1012.4
20260504205533 23 255 1.6 11.3 0.00 0.00 0.00 45 1012.4
20260504205434 23 254 3.2 11.3 0.00 0.00 0.00 45 1012.4
20260504205320 23 261 3.2 11.3 0.00 0.00 0.00 45 1012.4
20260504205223 23 226 1.6 11.3 0.00 0.00 0.00 45 1012.3
20260504205130 23 281 3.2 11.3 0.00 0.00 0.00 45 1012.4
20260504205039 23 285 4.8 17.7 0.00 0.00 0.00 45 1012.4
20260504204942 23 281 4.8 17.7 0.00 0.00 0.00 45 1012.4
20260504204849 23 255 4.8 17.7 0.00 0.00 0.00 45 1012.4
20260504204730 23 277 4.8 17.7 0.00 0.00 0.00 45 1012.4
20260504204617 23 251 3.2 17.7 0.00 0.00 0.00 45 1012.5
20260504204518 23 251 3.2 17.7 0.00 0.00 0.00 45 1012.5
20260504204428 23 251 6.4 17.7 0.00 0.00 0.00 45 1012.5
20260504204328 23 251 8.0 17.7 0.00 0.00 0.00 45 1012.6
20260504204230 23 252 6.4 17.7 0.00 0.00 0.00 45 1012.6
20260504204139 23 207 4.8 17.7 0.00 0.00 0.00 45 1012.7
20260504204025 23 182 6.4 19.3 0.00 0.00 0.00 45 1012.7
20260504203927 23 229 6.4 19.3 0.00 0.00 0.00 46 1012.6
20260504203829 23 280 4.8 19.3 0.00 0.00 0.00 45 1012.5
20260504203737 23 240 4.8 19.3 0.00 0.00 0.00 45 1012.6
20260504203617 23 204 6.4 19.3 0.00 0.00 0.00 45 1012.6
20260504203524 23 282 6.4 19.3 0.00 0.00 0.00 45 1012.6
20260504203426 23 210 6.4 19.3 0.00 0.00 0.00 45 1012.6
20260504203339 23 264 6.4 19.3 0.00 0.00 0.00 45 1012.6
20260504203219 23 237 8.0 19.3 0.00 0.00 0.00 45 1012.6
20260504203121 23 234 4.8 17.7 0.00 0.00 0.00 45 1012.7
20260504203030 23 257 6.4 17.7 0.00 0.00 0.00 45 1012.7
20260504202931 23 262 8.0 17.7 0.00 0.00 0.00 45 1012.7
20260504202839 23 231 8.0 17.7 0.00 0.00 0.00 45 1012.6
20260504202719 23 265 4.8 17.7 0.00 0.00 0.00 45 1012.7
20260504202625 23 241 4.8 17.7 0.00 0.00 0.00 45 1012.8
20260504202527 23 298 6.4 17.7 0.00 0.00 0.00 44 1012.8
20260504202435 23 245 8.0 17.7 0.00 0.00 0.00 44 1012.8
20260504202318 23 223 9.7 17.7 0.00 0.00 0.00 44 1012.7
20260504202220 23 279 9.7 17.7 0.00 0.00 0.00 44 1012.8
20260504202122 23 291 6.4 16.1 0.00 0.00 0.00 44 1012.8
20260504202035 23 283 6.4 16.1 0.00 0.00 0.00 43 1012.8
20260504201918 23 244 8.0 16.1 0.00 0.00 0.00 44 1012.7
20260504201846 23 295 6.4 16.1 0.00 0.00 0.00 43 1012.6
20260504201727 23 250 4.8 16.1 0.00 0.00 0.00 43 1012.7
20260504201656 23 248 4.8 16.1 0.00 0.00 0.00 43 1012.8
20260504201517 23 270 8.0 16.1 0.00 0.00 0.00 43 1012.8
20260504201423 23 261 6.4 16.1 0.00 0.00 0.00 43 1012.8
20260504201325 23 255 3.2 16.1 0.00 0.00 0.00 44 1012.9
20260504201234 23 276 6.4 16.1 0.00 0.00 0.00 43 1012.9
20260504201135 23 250 8.0 16.1 0.00 0.00 0.00 43 1012.9
20260504201017 23 276 4.8 19.3 0.00 0.00 0.00 44 1012.9
20260504200925 23 218 4.8 19.3 0.00 0.00 0.00 44 1012.8
20260504200826 23 240 4.8 19.3 0.00 0.00 0.00 43 1012.8
20260504200732 23 259 4.8 19.3 0.00 0.00 0.00 44 1012.9